GFSSW_500_spd_084.txt.gz
Wind_Speed
49 46 50 48 47 47 50 43 46 45 44 48 55 51 49 45 48 49 51 46 49 55 55 45 42 43 46 43 40 38 34 29 25 24 24 21 19 15 14 14 11 12 13 13 13
47 48 46 46 45 44 45 47 48 48 48 47 54 47 47 46 50 51 50 48 45 51 56 49 42 45 48 46 43 40 37 32 30 27 25 24 21 18 15 13 12 11 12 13 12
45 47 47 45 43 43 46 48 50 53 49 46 48 44 46 49 56 53 57 51 35 43 58 50 48 51 49 47 44 42 38 38 33 28 27 25 22 20 17 15 14 12 11 11 12
43 49 49 47 45 47 52 52 55 56 53 48 47 46 50 51 56 53 55 51 46 34 56 54 50 54 49 50 46 45 46 37 34 33 31 27 24 21 19 15 15 14 13 10 10
44 50 52 50 52 55 56 54 56 56 53 50 50 51 54 52 57 53 55 50 52 48 56 58 52 51 53 50 48 46 43 37 37 36 32 29 26 23 20 19 17 15 13 12 10
50 52 53 56 56 58 53 54 57 55 51 51 52 52 54 54 54 49 54 58 65 53 51 60 56 56 54 52 47 46 44 43 41 37 35 31 28 25 23 21 18 17 15 13 12
49 53 56 57 56 55 53 55 53 50 51 50 52 53 50 52 51 46 60 51 53 58 50 61 58 57 55 52 50 47 46 46 44 41 37 34 30 26 26 23 20 18 16 14 12
49 54 56 56 53 53 53 50 48 48 49 51 50 49 48 48 47 45 55 49 52 57 60 66 64 61 59 56 52 47 49 49 45 43 40 36 33 31 29 26 23 20 18 16 14
48 53 55 55 52 51 50 47 48 47 49 50 51 46 48 47 46 45 48 47 42 51 56 63 64 63 61 57 55 54 52 51 48 46 42 38 37 32 31 29 26 23 20 18 16
58 54 56 55 54 53 52 53 47 47 49 50 50 45 47 48 49 45 57 46 44 57 61 67 65 65 64 62 59 56 54 52 48 46 43 40 37 33 32 30 27 25 22 20 17
43 50 60 56 50 60 54 51 53 51 49 46 43 44 50 50 51 56 48 52 51 58 63 63 64 66 60 61 55 50 51 51 48 45 42 39 38 35 35 31 28 26 24 22 19
53 46 39 53 56 46 47 44 48 49 51 50 46 43 45 50 53 55 60 59 54 56 68 62 64 64 61 59 55 56 54 52 50 44 44 43 40 37 36 33 31 29 25 22 19
54 51 61 59 55 49 49 48 49 49 48 46 44 44 41 47 55 56 55 56 63 63 74 69 65 63 62 60 58 59 54 53 48 45 47 44 43 41 38 36 33 30 28 26 23
58 51 44 48 53 46 49 59 54 48 50 48 43 42 44 50 56 60 60 60 63 69 70 64 65 61 64 59 59 58 51 52 49 47 47 45 43 44 41 39 36 33 31 27 25
47 54 51 54 53 51 51 59 56 49 51 50 47 44 48 52 55 58 59 56 59 64 67 64 64 64 62 59 57 55 52 51 46 49 49 47 47 46 44 41 38 34 31 29 27
54 51 54 51 52 51 59 61 55 54 55 55 51 49 52 55 56 53 57 52 54 56 58 57 58 60 59 56 58 57 55 53 50 51 52 50 50 49 47 42 39 35 33 31 30
56 49 52 55 53 56 64 58 57 58 59 54 51 48 50 57 58 57 59 58 61 66 57 55 58 56 56 58 58 57 54 53 55 57 58 53 54 50 49 43 39 37 34 34 32
58 45 54 58 59 59 65 60 62 62 58 55 51 45 50 58 56 54 57 57 56 55 58 58 58 53 55 57 58 59 56 59 60 61 59 55 58 51 45 40 39 38 37 35 33
48 53 60 57 59 64 65 65 62 59 55 53 49 49 53 59 53 57 55 57 52 54 58 57 56 54 56 56 58 59 58 57 56 56 55 54 54 48 45 43 42 40 39 36 35
54 58 62 56 58 59 69 65 63 61 56 52 46 52 52 55 59 57 52 57 51 53 56 56 54 56 55 56 57 56 52 54 57 56 55 56 55 52 46 43 43 40 39 38 36
50 62 63 64 60 56 62 69 60 59 55 51 49 47 48 55 56 58 54 50 52 53 56 55 54 55 55 57 56 56 55 56 54 54 54 55 54 48 45 42 41 41 40 39 39
67 65 63 62 62 59 59 59 62 61 56 54 51 45 44 50 54 58 58 50 50 51 54 55 56 54 54 54 54 54 52 51 52 53 52 51 49 45 43 41 39 40 40 40 39
67 63 61 70 64 57 61 58 63 61 57 54 53 49 45 45 54 54 55 51 49 49 52 50 54 53 53 55 55 55 53 51 52 51 52 51 51 48 45 41 39 38 38 39 40
65 58 57 66 63 63 61 60 61 63 56 54 52 51 48 45 46 56 53 49 51 46 48 49 49 50 50 50 51 51 50 49 49 51 48 50 45 43 41 39 39 38 41 41 40
60 60 59 66 65 63 62 61 59 59 59 54 53 51 48 48 46 54 59 54 48 46 44 47 49 48 48 48 48 47 48 46 48 46 47 42 44 40 41 41 42 45 44 40 39
62 60 60 59 63 67 62 59 60 58 56 58 56 53 52 48 47 47 53 58 58 54 50 49 49 49 51 52 53 51 49 48 49 48 48 48 49 44 44 47 45 43 42 43 43
66 65 58 65 61 61 61 58 58 57 56 58 57 54 52 50 49 47 43 41 47 60 56 57 58 56 56 54 52 53 54 53 50 49 51 57 52 47 49 49 47 45 45 47 47

GFSSW_500_spd_087.txt.gz
Wind_Speed
58 55 51 53 57 64 60 63 61 64 66 64 62 55 51 51 47 41 40 41 40 35 37 49 48 47 44 42 41 39 38 32 29 27 25 21 19 17 16 15 15 13 14 14 18
48 51 54 43 46 52 51 54 55 53 54 54 59 55 51 53 47 43 40 41 42 38 41 46 47 47 45 45 45 41 38 35 32 27 25 25 23 21 16 15 14 13 14 14 16
54 51 50 46 43 44 52 44 46 45 46 53 54 54 51 47 50 43 40 41 41 40 45 42 46 49 47 48 46 43 39 39 32 29 28 27 25 21 18 15 14 13 13 14 14
55 49 46 47 46 46 46 48 44 45 44 42 47 47 49 44 49 46 44 44 47 45 47 44 52 51 49 50 49 45 44 40 35 34 32 29 26 23 20 16 16 15 13 14 13
44 48 47 50 49 47 47 45 44 42 43 42 42 43 48 45 45 45 45 46 47 50 49 46 55 52 52 53 52 48 50 42 40 38 35 31 29 24 21 18 17 16 14 14 14
43 47 48 55 53 50 49 46 44 45 45 48 47 47 47 48 49 43 45 46 51 57 43 38 48 62 59 52 51 49 47 43 42 38 36 33 29 25 22 21 19 18 17 15 15
42 50 51 58 58 56 54 52 50 52 49 51 51 51 51 50 48 43 46 46 50 47 51 38 50 57 55 52 53 52 46 45 44 42 38 35 31 27 26 24 21 20 18 17 15
44 46 47 57 57 58 58 58 54 57 57 51 54 53 54 49 47 46 49 50 49 51 57 51 36 59 59 58 57 54 51 49 47 45 42 37 34 31 30 27 25 22 19 18 16
44 51 48 56 56 57 56 55 54 52 59 57 56 55 57 51 48 48 51 49 50 54 57 62 50 57 61 62 59 56 55 55 53 48 44 41 38 34 32 30 28 25 22 19 16
45 50 53 55 54 54 55 51 51 53 59 58 57 53 53 51 52 50 53 48 49 54 62 63 57 58 65 62 61 59 59 55 51 47 45 42 39 35 33 32 30 27 24 21 19
62 39 39 54 49 49 53 53 55 55 52 51 47 56 54 56 54 52 51 51 52 56 64 56 54 57 63 59 60 61 54 52 51 49 48 44 41 37 37 36 33 30 26 24 21
57 48 40 52 49 50 46 47 49 48 53 59 56 55 57 53 51 53 54 55 50 60 57 58 56 56 62 64 64 63 57 56 52 49 46 46 43 41 39 37 37 34 30 28 24
46 44 51 50 59 59 49 47 48 51 49 50 55 59 56 54 51 51 53 56 51 49 57 48 49 59 66 67 65 63 60 59 56 50 49 48 47 46 41 40 38 35 33 29 27
49 57 55 50 58 57 54 54 53 50 51 53 48 48 49 51 52 50 52 57 58 62 56 51 56 62 69 69 66 66 62 60 55 49 51 51 50 47 43 41 41 38 35 30 29
58 58 49 55 43 60 55 51 56 55 56 53 50 48 48 45 47 51 51 51 58 50 59 55 54 60 70 66 67 64 61 58 55 52 53 54 54 50 48 47 43 39 36 32 31
62 55 55 51 48 55 57 49 56 56 57 56 53 50 47 45 44 48 50 54 59 62 61 62 60 63 69 62 63 62 63 58 55 52 57 57 57 52 51 45 44 43 38 34 33
64 62 59 46 49 59 55 57 58 53 50 51 51 53 48 46 42 44 51 54 61 61 64 64 64 68 67 63 64 64 61 58 55 58 63 60 59 55 52 50 47 42 39 37 36
60 57 59 53 55 58 53 51 56 44 49 51 52 54 51 50 45 44 51 59 61 56 60 66 63 72 67 67 68 66 62 63 64 64 65 62 64 59 52 49 46 42 41 39 37
55 54 56 57 57 58 56 52 53 46 50 57 57 56 52 47 43 47 50 53 57 59 61 63 66 70 61 59 64 64 63 60 60 61 61 60 60 56 50 48 45 43 42 41 39
64 56 51 58 57 59 53 51 54 55 57 59 60 57 53 49 46 41 48 51 56 58 60 55 60 58 54 57 58 60 57 61 62 63 65 63 62 58 51 46 45 42 41 41 41
65 59 54 47 53 61 57 57 57 61 57 59 60 52 50 47 45 43 42 48 54 57 54 55 54 52 51 57 58 60 62 62 59 61 63 63 60 54 47 45 43 42 43 42 42
54 65 62 51 62 67 56 55 56 56 58 59 53 51 43 43 43 43 44 48 53 56 53 55 57 56 50 51 53 57 55 57 60 60 60 59 57 53 47 43 42 42 42 40 41
60 70 66 61 63 56 57 51 58 58 60 57 52 49 43 36 42 42 44 49 52 56 51 50 52 54 51 52 54 54 53 54 55 53 55 54 54 51 47 43 39 39 40 41 42
56 65 66 70 64 56 53 51 53 61 57 56 52 49 49 42 37 43 49 49 49 51 44 42 46 49 51 53 54 54 53 53 54 55 54 53 48 46 43 38 38 38 39 41 43
62 68 67 66 65 59 55 52 54 61 60 57 54 50 50 48 40 43 52 52 49 42 42 46 46 44 45 48 47 47 48 46 49 48 51 46 45 41 40 40 42 43 43 43 43
64 69 72 68 67 63 59 55 54 55 56 58 54 53 53 49 42 33 47 53 55 52 44 42 44 44 46 45 47 47 45 49 47 45 48 50 48 43 45 47 44 42 41 40 40
54 66 72 72 66 64 58 52 52 51 52 52 54 54 51 47 45 42 38 33 48 55 51 45 39 40 46 48 48 52 53 47 47 52 51 51 41 44 45 47 44 42 43 43 44

GFSSW_500_spd_093.txt.gz
Wind_Speed
72 62 53 56 60 68 84 84 82 78 74 72 71 65 57 53 53 51 46 39 36 38 36 37 29 34 38 43 42 39 35 36 28 27 24 22 21 18 17 16 15 15 15 15 15
84 74 58 58 61 55 71 81 79 76 74 69 69 63 58 59 57 54 45 43 40 40 40 39 40 33 37 40 45 43 38 36 31 31 27 26 24 23 19 18 16 16 16 16 16
83 84 58 59 58 59 57 77 78 74 70 63 64 63 61 62 59 50 47 44 42 40 38 38 37 35 38 41 44 44 37 38 34 34 31 28 26 24 21 20 20 20 19 17 18
71 79 54 59 62 58 60 60 66 74 72 64 58 58 59 61 59 55 49 47 44 44 40 41 41 38 40 42 43 45 39 41 37 36 32 28 29 24 22 24 23 22 19 19 18
75 89 72 66 62 61 61 58 58 67 65 62 60 58 58 62 61 54 53 48 47 43 40 39 39 41 40 42 45 42 42 43 40 39 35 34 31 29 28 25 24 21 21 19 19
73 77 63 56 62 62 57 53 53 58 56 51 57 57 53 56 56 53 52 50 47 43 41 41 42 43 37 40 43 45 47 45 44 42 40 35 33 31 30 28 26 23 22 20 20
72 77 82 45 54 62 53 52 51 49 50 49 50 50 54 51 58 58 54 50 46 45 43 45 43 43 38 39 41 49 52 47 47 45 42 38 38 33 33 30 27 26 24 22 21
60 76 85 51 52 60 55 51 44 45 49 54 50 50 53 53 53 54 55 50 45 44 45 45 45 46 39 41 38 41 51 52 50 48 45 44 37 37 36 34 29 27 25 25 23
50 64 85 79 55 58 57 43 49 49 50 58 57 53 50 50 50 50 52 47 43 45 45 46 45 50 44 42 44 38 41 45 51 52 49 48 41 42 39 36 32 30 29 29 27
49 62 78 61 53 59 57 55 49 55 59 56 63 62 51 48 46 44 46 49 46 45 46 50 52 55 57 58 46 41 41 42 50 54 51 50 43 44 41 38 33 32 31 30 28
49 54 76 88 55 58 60 50 51 50 59 65 53 53 54 54 52 44 46 43 44 46 48 50 55 57 53 43 48 43 41 38 48 55 52 50 45 44 42 40 38 34 32 32 30
49 51 74 65 60 68 66 52 58 56 53 57 58 56 57 61 57 49 47 47 45 44 44 46 50 48 51 45 48 56 49 42 52 61 56 52 50 46 45 43 38 35 36 34 35
47 48 65 65 53 69 66 80 76 59 47 56 60 59 62 61 59 55 52 45 45 44 39 41 44 51 53 55 49 51 50 40 45 63 62 54 54 52 51 48 45 43 41 40 36
47 47 53 55 64 69 64 69 72 62 54 60 67 67 65 63 62 60 59 57 54 46 49 51 46 51 54 54 53 55 54 46 55 66 63 57 57 56 55 51 48 43 42 39 37
55 56 58 71 67 67 62 62 67 63 57 52 64 63 64 66 61 59 62 62 58 54 55 53 47 50 54 49 49 55 57 47 59 65 60 59 60 58 57 55 51 46 43 42 40
61 68 53 66 64 66 65 66 68 66 58 58 61 65 64 64 64 61 60 64 61 61 60 55 52 50 49 51 51 47 60 48 54 60 67 63 65 63 61 56 52 47 45 44 42
61 64 62 65 63 65 61 69 69 70 57 52 57 60 58 60 60 57 59 58 59 58 60 54 52 47 52 53 52 54 59 59 57 63 68 66 70 64 61 59 55 51 48 47 45
61 74 64 75 66 65 69 74 71 72 68 60 54 54 56 58 58 54 56 57 57 58 57 55 51 39 46 54 54 56 57 57 56 54 57 69 71 66 62 61 59 56 53 51 49
67 63 67 70 61 70 74 66 72 68 74 65 63 59 57 56 55 54 58 57 54 56 57 53 52 48 50 57 58 62 65 62 63 61 63 73 69 68 65 63 61 58 54 52 48
66 59 63 66 66 66 65 69 66 64 66 64 56 57 57 58 53 53 54 54 53 51 53 55 55 53 55 62 59 63 54 61 62 63 65 70 74 70 67 64 57 55 52 52 49
58 59 64 56 61 72 70 65 62 62 59 54 59 54 49 49 48 43 40 46 47 46 48 55 57 53 59 65 65 60 64 61 63 67 67 70 70 66 64 64 58 54 49 50 49
65 62 73 68 66 69 62 58 54 54 56 56 54 47 42 41 38 34 36 36 39 44 47 51 54 54 57 67 63 64 63 59 62 63 69 70 71 70 68 61 58 57 50 51 49
67 74 75 60 57 74 70 60 55 53 48 43 49 48 42 41 40 32 32 32 37 43 45 47 50 54 56 64 63 62 59 57 57 64 69 71 71 66 62 60 62 55 54 48 50
66 73 71 64 56 69 62 65 56 50 46 43 51 48 42 34 31 31 32 35 35 41 40 40 46 50 52 58 60 55 55 51 54 65 67 66 68 64 60 54 51 47 51 41 48
63 68 75 49 56 66 65 62 58 49 43 39 49 44 40 38 34 30 30 36 39 40 43 43 45 46 47 49 52 53 50 55 60 60 69 65 67 62 60 58 45 41 43 42 49
59 66 68 66 61 66 60 64 58 51 48 42 51 45 42 45 36 32 30 36 39 43 45 45 40 42 44 44 49 52 52 51 59 65 70 68 65 56 50 43 45 43 44 43 42
57 63 63 60 73 59 63 60 55 52 49 44 44 44 45 42 35 32 29 28 38 42 41 40 41 41 43 46 49 52 52 53 50 53 60 70 64 53 40 42 44 43 43 43 45

GFSSW_500_spd_096.txt.gz
Wind_Speed
77 78 77 67 55 61 70 60 77 81 74 72 68 66 62 59 58 57 50 42 40 41 39 37 38 31 26 23 34 36 35 32 26 22 23 22 20 18 17 15 13 12 13 12 12
78 80 75 84 60 56 63 67 58 77 71 71 69 64 65 62 59 58 51 48 46 45 42 40 34 34 33 28 28 39 35 31 28 24 26 24 24 22 20 18 16 14 14 13 12
79 81 79 75 61 54 59 62 57 60 67 67 66 62 63 64 62 56 54 50 48 45 40 37 38 42 36 27 27 34 37 35 32 28 28 26 25 24 22 21 21 19 17 15 14
76 81 79 79 79 58 62 58 54 51 63 62 63 64 63 65 63 56 56 52 47 46 42 40 42 41 41 38 31 31 35 40 37 32 31 28 30 26 24 26 21 20 17 16 17
63 75 74 86 83 59 62 62 55 47 54 60 60 60 65 69 63 55 57 53 48 45 41 41 42 40 38 35 31 35 38 41 41 35 34 34 31 30 29 26 23 20 20 19 17
62 64 73 80 77 54 59 60 58 50 51 58 58 55 60 65 56 54 55 55 50 46 44 41 40 41 39 39 34 28 37 39 43 39 36 37 36 33 30 27 25 24 22 21 20
59 59 72 73 75 61 59 60 58 52 50 51 52 57 61 58 58 55 56 54 50 48 45 41 41 42 39 35 38 35 34 40 41 43 39 40 40 33 33 31 28 26 24 22 21
52 58 64 68 73 68 49 59 56 50 50 49 52 53 59 55 53 57 53 53 51 49 47 45 42 43 41 41 40 38 33 42 40 43 41 43 38 36 34 32 31 28 26 23 21
49 54 64 70 69 58 60 60 55 49 50 53 51 53 54 54 51 52 51 51 52 51 49 46 42 45 46 46 36 40 31 33 41 45 44 44 39 40 38 36 34 30 28 27 25
48 54 60 73 75 55 57 55 55 52 56 57 64 66 59 52 50 47 49 49 50 53 50 48 47 47 46 48 54 45 36 34 44 43 45 43 40 41 41 38 36 33 32 29 26
47 52 59 69 77 61 56 59 69 61 50 60 64 49 53 58 55 51 49 47 48 51 54 51 50 51 49 44 42 42 47 35 34 33 40 39 43 44 44 42 40 36 32 30 28
48 51 56 58 85 64 55 63 45 51 61 60 60 57 55 60 58 54 52 52 49 49 50 49 51 47 43 44 47 49 37 38 33 35 39 37 42 47 49 46 42 39 37 35 36
50 52 51 54 68 79 55 61 50 71 62 62 65 62 63 64 60 60 57 49 51 48 48 48 48 47 44 44 46 45 46 43 45 40 42 38 39 52 52 50 47 44 42 42 38
51 55 52 50 68 79 59 57 65 53 61 72 64 59 67 66 65 64 63 59 54 48 50 53 46 47 44 46 44 48 47 46 52 50 48 42 48 51 55 55 50 47 45 41 38
53 55 51 53 66 56 62 74 48 56 66 61 62 63 62 69 65 67 66 64 55 51 52 49 45 43 44 42 46 48 44 50 48 49 49 49 50 41 60 58 54 50 47 42 40
54 55 50 59 58 68 71 71 52 68 69 60 66 66 68 70 67 68 70 65 59 60 60 53 49 45 42 45 47 48 48 49 53 52 56 56 56 58 56 60 55 53 48 44 43
53 55 62 57 62 69 63 65 69 65 54 51 51 57 62 64 68 68 67 67 65 58 58 54 51 46 47 52 52 49 48 51 52 56 61 55 56 56 44 61 57 54 48 46 47
57 58 67 58 64 68 69 78 77 75 65 45 49 59 62 66 66 67 67 65 65 62 58 52 51 46 48 47 48 45 49 54 54 57 53 57 51 45 34 52 61 60 54 54 53
59 61 61 71 69 67 75 79 82 56 67 66 55 49 62 64 64 66 64 60 61 62 58 54 56 53 53 51 50 51 51 48 53 57 56 47 45 44 39 41 55 63 59 55 53
58 66 71 69 69 81 70 67 82 79 78 51 60 58 49 57 65 64 62 60 59 58 61 59 57 58 55 55 57 53 46 51 52 52 54 53 51 51 47 41 44 60 61 55 52
58 74 77 74 78 63 81 69 73 69 70 68 69 52 51 47 60 61 59 58 61 59 58 60 58 57 61 59 52 51 51 52 50 53 54 54 58 54 56 50 45 51 60 57 51
59 62 66 62 73 66 74 72 78 71 70 63 61 53 43 41 48 49 48 50 54 53 53 52 54 59 58 57 55 55 55 55 52 51 55 55 47 49 53 51 44 47 56 57 47
62 70 73 56 74 77 77 71 68 70 68 68 67 67 52 41 38 40 42 45 46 46 47 51 49 50 54 58 55 56 57 56 54 55 54 58 52 51 49 50 48 49 61 60 55
56 66 70 61 52 69 75 71 74 69 68 69 65 55 52 46 39 35 36 38 41 39 41 41 44 43 48 49 50 54 55 57 58 56 53 56 50 54 52 49 51 51 46 48 53
50 53 65 65 59 62 73 67 77 67 68 61 57 52 44 41 43 39 40 38 36 38 39 38 37 39 42 44 46 48 52 52 52 46 53 49 60 55 50 50 51 48 43 42 43
47 50 60 59 63 62 65 72 69 65 58 54 51 45 41 41 39 38 44 45 40 40 41 37 37 40 41 42 45 47 50 53 53 49 49 57 55 52 46 47 52 53 37 37 36
44 49 59 70 59 59 59 69 64 58 54 51 45 43 40 45 44 41 40 36 35 39 37 37 36 41 42 39 40 45 42 44 46 48 48 53 51 55 52 45 47 56 51 44 41

GFSSW_500_spd_102.txt.gz
Wind_Speed
66 68 68 69 69 68 68 71 72 70 69 73 77 75 69 67 66 64 60 51 49 47 45 38 36 40 36 37 39 33 29 26 24 25 25 23 21 19 18 16 14 14 15 17 17
71 71 72 73 74 71 71 74 76 72 71 73 75 76 75 70 69 68 58 55 53 51 49 44 46 40 42 34 33 35 32 28 28 29 27 24 23 21 20 18 17 14 14 17 19
71 73 72 70 70 70 72 77 80 73 68 70 70 75 78 73 72 68 60 57 56 54 53 54 47 45 42 35 34 34 32 30 30 31 27 23 23 23 21 22 17 15 15 16 20
69 67 64 65 67 72 76 78 79 75 69 69 68 71 77 76 75 67 64 60 59 58 56 53 46 47 43 39 33 32 31 32 31 32 27 26 23 25 24 22 19 16 16 17 20
63 59 60 61 66 68 69 71 77 73 64 60 64 60 68 81 79 67 66 62 61 60 57 53 50 47 44 37 36 31 28 31 32 32 28 27 27 28 26 22 20 18 19 18 18
54 57 58 59 61 63 64 66 71 69 64 63 63 61 60 82 77 66 65 63 59 59 58 55 54 50 44 41 38 35 34 35 34 33 31 31 29 26 26 24 23 22 21 19 20
53 55 57 57 59 63 64 67 66 63 67 74 61 59 59 74 74 67 65 65 60 59 59 56 54 52 48 43 39 37 39 37 37 35 35 35 32 28 30 27 26 25 23 22 21
50 51 52 57 58 61 63 64 63 64 71 62 59 59 57 64 67 66 63 66 63 61 60 59 57 55 49 47 40 40 41 42 35 38 40 37 34 36 34 31 30 29 26 23 22
50 50 50 51 58 60 60 61 59 64 69 71 68 59 66 55 59 61 63 66 65 62 61 60 59 55 52 51 45 45 45 44 40 37 38 36 30 35 37 35 33 32 30 27 25
49 48 50 52 53 55 59 58 61 66 76 73 64 54 70 62 55 56 58 63 67 63 63 61 61 59 56 54 53 49 46 39 35 37 30 33 28 27 39 39 38 36 35 30 27
46 48 49 52 54 57 61 63 65 69 73 74 68 56 66 56 57 56 59 61 67 66 64 63 61 60 57 51 48 45 39 33 36 40 34 29 30 31 33 41 40 39 36 34 30
47 48 48 49 53 56 60 64 62 66 70 78 62 53 65 63 62 61 67 67 66 66 65 64 62 56 54 50 44 43 40 37 39 40 38 33 29 30 33 39 42 42 40 37 37
46 43 44 47 52 56 59 62 64 61 62 68 67 54 59 65 64 67 65 63 65 66 64 61 61 59 55 51 48 46 41 38 38 43 43 39 35 29 28 35 42 45 41 42 39
41 39 40 46 51 52 55 58 67 63 55 65 75 58 61 65 67 68 71 68 65 60 59 62 62 57 54 53 49 48 43 40 41 42 45 43 39 32 32 32 37 46 46 43 43
39 39 40 43 45 51 54 59 66 58 59 70 66 53 69 65 69 75 71 72 65 56 58 60 62 59 56 51 50 50 46 44 42 44 42 47 50 27 34 30 30 38 44 42 43
38 41 44 47 47 59 59 57 50 57 64 72 57 65 67 70 71 73 72 70 69 71 68 61 57 60 54 53 52 48 45 43 43 45 47 44 51 35 40 24 21 30 36 44 45
40 44 47 48 52 62 62 64 58 57 41 70 58 70 68 70 72 74 73 76 75 72 71 64 61 54 56 54 53 50 50 50 48 45 49 48 53 43 33 24 29 26 23 25 40
40 46 48 51 54 63 64 65 64 57 56 40 58 63 73 71 76 53 73 74 75 68 67 65 63 58 53 52 50 49 52 47 47 46 47 47 52 54 38 33 30 27 30 28 31
40 47 47 49 54 63 65 80 53 62 59 54 39 62 76 76 80 71 65 72 69 69 67 63 63 60 56 52 55 56 56 50 52 49 46 45 48 50 34 34 35 30 33 32 36
39 46 44 49 58 67 73 70 46 53 58 55 46 68 74 74 78 74 69 71 68 65 64 65 64 62 60 62 59 57 54 54 56 52 48 43 46 46 44 32 36 33 32 34 34
39 44 47 51 60 67 72 55 34 38 60 55 51 63 62 64 65 67 63 59 61 67 69 66 68 69 64 68 60 59 58 57 55 56 54 47 46 44 42 35 33 33 31 36 32
38 43 47 49 59 64 76 53 37 40 45 55 50 53 57 70 72 64 66 56 55 63 68 72 68 68 63 64 60 61 57 54 55 54 55 55 43 42 41 40 37 35 36 37 40
36 41 44 47 59 67 74 45 46 43 41 50 41 54 52 53 69 69 60 59 61 58 64 66 70 67 64 59 57 59 55 56 55 58 56 58 40 42 43 39 40 39 38 36 37
33 40 45 48 58 62 66 48 55 38 50 48 46 45 49 57 58 57 54 51 57 58 60 62 60 61 58 54 52 51 50 49 46 50 53 58 40 45 43 44 44 46 43 41 41
33 38 43 49 57 63 59 52 47 48 44 44 46 49 46 55 57 60 56 56 53 51 54 56 54 53 51 47 49 47 50 50 52 52 54 49 51 45 48 50 48 50 50 48 46
33 38 40 45 52 63 62 57 49 54 45 46 46 39 46 38 39 45 41 43 49 49 46 46 49 48 48 49 49 48 48 50 52 50 52 52 53 44 51 51 52 52 51 50 49
29 34 36 41 50 63 65 41 60 54 47 44 45 46 41 39 35 34 35 39 44 46 48 44 43 39 40 44 46 50 52 51 50 51 47 49 46 43 54 58 57 56 57 55 54

GFSSW_500_spd_105.txt.gz
Wind_Speed
58 58 59 58 57 57 58 57 58 58 58 57 62 62 63 64 61 61 58 54 52 50 49 45 42 38 35 34 33 33 33 30 29 30 30 28 28 27 21 17 14 13 11 13 15
60 58 58 58 57 57 57 57 58 59 60 61 60 63 61 64 65 65 59 54 56 52 52 47 44 33 41 27 40 35 34 32 31 30 27 28 27 26 21 18 15 14 11 12 16
61 61 60 60 60 59 58 59 59 59 60 63 65 63 64 63 67 66 63 58 59 55 54 50 48 44 44 43 39 35 34 36 31 29 28 29 28 24 23 22 17 14 12 13 18
64 64 64 63 62 62 62 62 61 61 57 63 67 69 66 68 70 67 64 62 59 59 56 54 51 48 43 40 39 36 34 38 33 31 31 30 28 27 25 23 18 17 15 14 16
67 68 67 66 66 67 66 66 65 64 62 60 67 71 71 70 78 69 63 65 63 61 59 57 54 51 46 46 42 39 34 37 37 32 33 32 30 26 26 23 19 19 18 16 16
69 71 71 70 69 68 68 68 68 64 62 64 63 71 74 76 70 72 62 66 65 61 60 59 57 56 57 51 46 37 36 40 39 33 30 33 30 27 28 26 24 23 21 18 17
71 71 71 70 68 68 68 69 67 63 64 67 69 70 73 71 71 67 64 67 67 63 61 60 59 57 55 52 43 42 40 40 33 33 34 33 32 31 33 29 27 26 24 22 19
69 69 68 69 68 69 67 65 62 64 63 64 67 71 73 71 67 63 62 65 68 65 65 63 62 60 57 54 46 43 43 44 38 35 36 35 34 36 33 31 31 29 26 25 24
67 67 66 66 66 65 62 58 61 62 60 60 65 71 72 75 71 63 62 63 69 65 68 65 62 62 60 56 52 47 47 46 41 41 37 39 34 36 35 35 33 33 30 29 27
65 63 64 64 62 59 56 58 59 62 62 63 65 68 77 69 64 61 59 66 68 67 68 68 65 65 62 60 57 52 49 47 42 36 39 32 34 35 36 36 37 35 34 31 29
61 58 56 57 58 57 59 60 59 63 64 68 67 73 74 69 65 63 58 62 69 70 69 70 69 68 63 59 54 54 52 46 39 41 40 38 38 33 37 37 35 40 38 36 32
55 55 55 57 57 58 60 62 60 59 62 63 65 70 72 69 68 63 61 66 74 69 68 71 73 63 60 59 54 55 54 50 41 46 39 38 41 32 37 35 30 37 42 39 38
55 55 56 55 55 59 57 57 57 58 59 62 65 70 73 73 64 60 65 66 70 69 67 64 69 65 63 61 57 57 53 45 48 44 42 42 41 34 28 33 34 33 42 42 41
53 55 54 54 56 56 54 53 53 56 60 64 72 71 71 73 66 54 62 67 64 69 65 63 69 66 64 61 58 59 56 47 49 44 46 46 47 40 29 32 36 32 35 44 41
52 53 52 51 48 50 50 53 53 56 59 65 65 68 72 63 65 50 63 68 71 62 63 67 66 65 65 62 59 59 54 47 48 44 48 46 51 39 35 36 29 27 34 40 44
50 50 51 50 47 48 50 53 55 59 63 65 49 69 65 72 52 57 60 66 66 65 68 69 67 65 63 62 60 57 52 49 48 46 50 46 49 45 40 33 31 31 27 37 45
49 48 46 45 45 48 51 57 61 65 60 57 63 56 49 74 58 52 62 68 72 77 75 73 70 66 65 63 62 60 56 52 50 50 54 49 53 49 38 31 32 34 24 25 33
48 46 45 46 47 51 56 60 62 65 65 32 43 59 67 55 68 56 55 62 75 60 72 71 73 70 66 64 59 59 58 55 56 51 50 50 53 53 37 29 27 39 25 27 29
48 46 44 47 51 56 59 62 65 64 67 68 33 32 65 75 58 59 61 68 72 69 70 72 73 69 68 63 61 63 61 55 52 51 52 53 48 52 37 31 33 35 35 31 30
46 44 44 47 50 56 62 63 64 63 60 58 54 42 49 72 69 64 71 67 64 69 70 72 72 71 67 64 64 63 60 56 55 54 52 50 50 52 43 35 33 32 34 35 35
44 42 42 48 51 56 62 62 66 64 42 54 60 42 48 60 62 63 66 63 64 74 60 70 72 73 68 66 62 62 59 59 57 55 52 49 49 47 40 29 31 32 34 34 35
42 40 45 48 52 56 59 62 70 74 44 47 60 54 44 64 53 54 58 59 62 65 70 70 74 72 71 67 63 64 62 59 55 53 49 50 45 43 41 39 35 35 37 39 41
40 37 43 47 49 49 54 63 70 69 57 45 44 54 48 45 58 60 64 63 55 70 75 71 74 71 70 67 67 65 61 56 55 57 54 54 54 47 48 47 42 39 41 44 45
40 37 40 44 44 45 50 61 65 69 57 46 41 42 43 62 57 59 70 66 67 58 65 71 70 71 69 60 63 62 64 62 59 59 53 54 45 46 48 48 46 43 43 44 49
39 33 30 37 40 41 53 71 75 77 46 48 47 49 45 44 66 62 68 67 68 67 58 62 66 70 70 66 61 56 51 50 53 58 57 49 52 50 49 49 48 48 48 48 49
34 28 26 31 35 44 61 72 70 80 45 46 53 49 40 34 34 51 59 61 63 67 63 62 65 62 66 66 63 60 55 52 51 54 57 54 53 49 48 53 52 57 57 53 49
28 29 28 30 37 48 63 63 70 66 50 49 54 51 44 34 42 42 46 57 58 55 57 55 57 58 59 63 63 61 57 54 48 45 43 48 43 41 52 52 55 56 53 53 56

GFSSW_500_spd_108.txt.gz
Wind_Speed
66 66 66 66 65 62 59 57 55 53 52 51 54 54 54 56 56 57 54 51 49 47 46 43 41 39 36 30 21 25 35 31 32 30 32 25 25 24 24 21 18 12 9 8 9
65 66 66 67 66 64 62 60 58 56 54 53 52 51 52 51 55 59 55 52 49 50 50 46 45 43 39 35 27 24 32 34 34 33 32 24 26 24 24 23 18 13 9 9 10
67 66 67 67 66 64 62 61 59 58 56 56 56 54 50 53 57 56 55 54 50 51 51 50 47 45 41 39 33 30 28 35 34 31 29 29 28 24 26 27 18 15 13 11 11
63 65 66 67 67 63 62 61 60 59 58 58 56 57 55 56 61 60 54 53 54 52 53 52 50 48 42 38 34 35 32 34 33 32 32 29 26 26 27 24 20 17 16 13 11
61 60 61 63 65 62 60 58 58 58 57 57 58 60 59 59 55 60 54 51 56 54 52 54 53 49 47 42 31 40 34 34 31 33 32 29 28 28 27 25 22 20 19 16 14
62 60 60 60 61 60 58 58 57 55 54 55 56 58 59 61 57 57 53 54 53 54 52 54 55 52 49 47 46 39 36 37 33 31 36 33 29 30 30 27 25 23 22 19 16
61 59 57 57 57 57 57 57 55 55 52 51 52 51 58 57 61 62 56 51 55 57 56 55 58 56 53 49 43 38 40 40 35 35 33 34 35 32 35 29 27 26 24 21 20
60 58 58 57 57 56 56 56 55 56 51 48 45 48 57 58 59 59 59 56 52 57 58 58 60 59 57 56 52 60 41 40 36 37 35 39 29 33 32 30 29 28 27 23 23
60 58 59 58 58 57 57 56 55 55 54 47 49 52 59 59 57 58 58 59 57 55 61 60 62 60 60 59 55 56 51 49 38 39 40 37 32 30 33 34 33 32 29 26 25
60 60 59 60 60 60 56 52 50 52 47 46 56 58 59 58 57 56 56 56 58 62 61 64 64 63 62 62 59 56 55 51 42 42 36 36 31 34 33 33 33 35 33 31 29
62 60 59 58 58 59 55 46 53 58 64 61 58 59 60 61 61 60 52 50 56 61 64 63 69 66 63 61 58 56 54 51 46 40 41 42 35 36 35 38 40 32 36 33 31
62 61 58 57 56 56 53 55 55 54 55 60 62 59 58 58 60 61 46 48 60 58 60 70 74 65 61 62 61 58 56 53 47 47 46 41 36 36 35 34 36 36 33 33 37
56 59 60 56 54 54 50 49 52 55 53 54 56 59 60 60 61 64 59 48 56 59 61 67 73 66 64 63 62 59 59 55 48 50 48 41 41 36 37 30 33 34 33 32 35
50 53 57 55 53 51 49 41 45 49 56 59 60 60 61 50 59 57 60 63 56 58 56 61 67 71 66 65 63 61 58 53 52 52 53 47 49 38 35 35 33 26 31 29 29
52 54 53 53 52 55 53 48 39 43 55 61 54 58 61 59 58 63 61 66 62 57 52 61 69 71 69 63 63 61 57 54 51 52 53 46 53 43 36 36 33 23 25 29 33
54 57 55 56 57 56 53 52 49 52 56 56 58 49 55 61 59 58 57 63 60 57 60 58 65 71 64 62 62 61 58 55 52 53 53 47 51 50 40 38 32 30 30 29 28
53 57 55 54 55 58 54 56 55 57 58 54 54 56 53 59 64 63 65 64 71 54 54 63 69 69 67 66 64 62 61 58 56 56 59 54 55 56 40 35 30 33 34 31 27
49 52 54 53 53 53 54 56 59 61 59 62 58 54 58 57 63 63 49 68 74 54 58 54 59 74 69 67 63 59 61 63 59 58 56 55 57 58 40 34 32 29 30 37 35
49 51 53 49 53 54 55 62 65 65 60 57 58 54 57 59 63 66 58 53 71 55 55 65 71 59 65 66 64 63 62 56 57 58 58 57 52 53 41 35 33 34 32 30 30
49 53 51 50 53 51 53 58 57 58 58 57 57 55 53 59 61 66 65 68 61 53 54 64 61 70 67 59 68 64 58 59 61 60 59 57 54 54 48 38 35 34 31 30 31
55 52 51 49 49 53 56 55 52 57 57 59 55 54 51 51 50 64 54 69 61 61 61 59 67 63 66 71 62 65 64 62 59 59 58 58 56 53 50 40 37 34 33 32 32
53 54 50 52 52 53 51 46 49 49 55 59 62 59 52 49 46 60 63 55 62 52 62 57 61 67 70 68 62 63 60 62 62 59 60 60 57 53 49 40 31 32 36 34 35
53 50 52 51 48 44 41 47 51 54 54 62 68 74 54 37 34 45 64 59 49 50 53 62 60 55 51 56 70 69 67 62 59 59 59 58 55 51 48 45 39 38 38 37 37
50 51 50 46 44 45 46 49 53 56 58 58 67 77 71 61 29 44 46 64 67 58 54 55 64 58 64 59 63 62 63 64 60 62 58 60 54 46 48 47 45 44 42 41 44
47 44 40 38 36 43 46 47 49 55 58 57 64 71 58 55 44 49 42 53 62 57 58 62 59 58 62 58 56 56 62 61 60 55 57 51 52 49 50 50 49 49 46 44 47
44 42 40 33 32 35 41 42 45 52 58 64 64 59 51 41 47 37 42 51 51 53 60 62 64 62 55 66 61 57 60 58 50 58 59 54 59 61 55 57 58 54 48 44 41
39 34 32 29 29 34 34 34 38 52 61 68 72 58 46 44 46 33 50 53 51 47 51 56 54 50 65 59 59 60 65 61 54 54 54 60 48 53 55 54 52 53 49 48 46

GFSSW_500_spd_111.txt.gz
Wind_Speed
64 64 63 63 61 58 55 55 54 53 56 60 60 59 58 57 55 58 56 53 50 50 50 49 47 42 37 30 28 22 19 26 32 34 31 27 24 21 20 19 15 9 14 9 7
60 63 63 61 60 59 56 55 54 53 53 53 54 54 59 58 56 57 54 52 50 50 50 49 46 44 40 34 30 26 24 22 30 34 30 26 25 24 22 20 17 11 14 11 8
60 62 62 62 61 60 59 58 56 55 53 53 52 51 49 61 58 51 57 52 50 49 50 52 45 45 42 38 34 31 23 23 30 33 30 29 25 26 23 21 18 15 16 13 10
59 61 62 63 64 63 62 60 58 57 56 55 54 53 52 51 59 55 54 55 53 52 50 50 46 47 44 40 37 34 30 22 27 34 32 29 27 26 24 22 20 19 18 15 13
61 60 61 62 65 65 64 62 61 59 58 58 58 56 54 51 49 55 52 51 54 52 52 49 47 48 45 43 41 32 36 32 26 30 33 32 28 24 27 25 22 22 21 18 15
62 60 60 62 62 63 63 62 62 61 59 57 57 54 56 54 50 48 48 51 50 51 53 52 47 47 46 44 43 37 28 33 32 30 32 32 29 29 30 24 23 23 22 20 18
61 62 61 61 62 61 60 59 59 59 59 58 57 56 59 54 54 54 50 49 53 51 51 53 53 51 50 48 47 40 37 32 38 35 28 30 32 27 29 28 27 25 24 23 20
60 62 62 61 61 60 61 61 60 59 59 57 55 57 62 55 56 55 51 49 48 53 53 54 55 53 51 49 49 44 45 43 31 37 33 34 23 32 32 30 30 28 25 27 24
59 60 62 62 61 59 59 60 60 59 58 57 55 58 63 56 56 55 51 51 51 51 54 56 57 54 52 50 50 48 48 46 36 41 37 37 23 32 30 32 33 32 30 29 26
60 59 61 61 61 59 59 60 60 60 60 59 58 58 60 54 53 53 49 50 52 53 55 55 59 59 54 56 53 51 50 46 42 37 31 33 27 31 31 31 34 34 32 29 28
61 60 60 62 60 59 60 63 64 64 63 61 59 59 55 54 50 50 47 45 47 49 55 58 63 62 55 54 51 52 52 51 50 50 46 39 35 32 36 33 30 34 33 31 30
61 60 59 60 60 60 60 57 55 54 58 58 56 53 53 52 49 46 44 40 41 44 52 60 62 62 54 56 54 55 54 54 53 50 50 45 39 33 34 36 31 33 33 33 31
62 61 60 61 62 61 56 53 53 50 50 48 50 54 55 51 50 45 44 41 36 43 47 55 56 57 59 58 56 55 58 55 55 53 51 49 48 38 35 32 35 27 30 31 35
59 62 62 63 64 59 55 51 50 49 51 52 50 48 49 48 49 43 46 47 50 46 40 48 52 61 59 60 60 58 54 55 57 54 55 55 55 43 37 35 33 26 24 23 29
57 59 63 59 58 58 52 48 47 45 53 53 55 52 49 51 53 51 50 50 51 49 51 50 50 55 60 57 58 61 54 55 55 54 57 57 59 49 40 38 32 28 23 30 26
54 56 58 56 56 49 51 43 39 47 55 55 56 56 55 53 56 52 51 50 51 56 54 55 46 51 54 52 54 56 55 56 57 57 62 61 59 61 46 41 35 30 30 32 27
51 51 51 49 50 53 52 46 49 51 51 53 55 57 53 52 55 54 52 56 56 54 58 57 57 47 47 55 58 59 56 54 55 60 66 62 62 63 50 40 36 36 33 31 30
49 51 54 51 54 53 51 58 59 59 53 53 52 52 53 53 55 52 55 57 58 54 42 50 62 53 41 48 60 62 63 66 64 65 68 66 67 64 54 40 36 34 35 33 32
54 54 53 55 55 56 55 59 62 59 54 53 52 52 54 53 54 54 56 59 56 60 57 40 51 58 58 52 50 60 65 57 62 62 65 66 66 62 56 40 42 35 35 35 33
53 54 54 53 54 54 57 59 60 60 58 55 55 53 54 53 55 59 58 57 61 59 66 62 47 51 63 58 59 60 56 63 59 62 64 68 67 64 60 43 38 38 38 37 35
49 51 50 49 47 53 58 60 56 57 57 57 56 56 54 47 48 58 59 58 59 59 61 61 60 61 42 49 60 61 68 66 61 60 63 63 65 62 58 49 39 38 36 36 36
46 48 47 48 51 55 58 57 57 53 52 54 55 53 49 50 50 51 57 53 55 56 57 57 63 65 52 53 52 48 49 61 66 66 63 62 63 59 58 55 40 38 39 39 37
44 46 49 53 57 56 50 50 48 50 49 50 53 52 51 49 53 51 49 52 56 63 64 43 48 67 59 60 57 54 61 55 52 60 62 61 60 59 57 51 42 36 38 39 39
44 54 55 56 54 51 45 43 44 47 48 49 50 53 54 52 52 52 52 53 55 62 59 52 62 65 54 61 56 58 56 61 60 57 60 60 54 57 55 52 45 37 40 41 43
47 47 49 54 50 48 48 43 43 45 47 47 50 50 55 57 54 50 53 52 53 58 53 55 71 61 57 48 69 56 48 55 61 55 60 53 56 53 50 48 46 46 42 43 47
47 39 46 46 43 43 43 41 39 40 41 43 45 50 53 61 59 55 48 47 50 51 57 56 58 65 52 43 55 50 49 47 44 44 51 56 59 54 50 53 52 49 46 42 46
37 38 42 41 40 37 35 33 35 37 41 46 50 52 54 59 61 68 59 48 46 42 45 58 53 53 51 51 54 58 56 49 49 45 46 49 53 53 46 52 51 49 47 42 44

GFSSW_500_spd_114.txt.gz
Wind_Speed
62 63 64 65 65 69 70 67 63 61 63 67 66 64 60 63 59 57 59 59 54 55 52 51 50 46 41 36 30 27 24 24 28 33 32 30 26 21 20 18 15 15 12 9 11
62 61 64 63 64 67 69 65 64 62 59 64 68 67 63 62 60 58 56 57 58 55 54 54 51 48 44 39 35 30 26 25 26 28 31 29 27 24 23 19 18 16 14 11 12
62 62 64 62 63 65 67 65 63 61 58 60 64 66 64 61 63 55 56 55 55 56 55 52 52 50 47 42 40 33 31 29 24 27 28 28 29 27 25 21 20 19 17 13 13
64 61 62 61 60 63 65 64 63 60 59 56 57 62 63 62 61 61 56 55 54 54 54 50 51 50 47 44 39 35 35 28 26 26 29 29 29 27 27 24 21 20 19 16 16
63 61 60 61 59 63 64 63 63 61 59 55 54 55 55 59 58 59 58 53 55 53 53 49 49 49 48 45 41 38 38 36 28 27 31 33 30 29 29 23 23 22 22 19 18
63 60 60 62 60 60 62 62 62 61 57 57 54 54 52 52 51 50 59 57 55 55 54 51 48 48 49 46 45 40 40 42 35 26 25 31 33 33 29 24 25 23 23 21 19
62 62 61 61 61 60 60 61 61 61 59 54 56 52 53 52 52 50 47 54 56 55 56 56 54 51 49 49 46 43 42 40 39 39 29 27 30 29 30 26 25 26 25 23 22
62 60 62 63 61 62 61 60 60 59 59 57 56 55 54 54 53 51 48 46 51 59 52 57 56 54 49 50 47 45 45 42 38 33 35 34 24 28 32 29 26 26 26 26 24
63 63 61 64 62 61 62 62 61 59 59 59 58 55 57 56 54 51 50 48 48 52 59 53 54 54 52 50 49 48 47 45 39 39 35 39 27 29 32 28 30 29 30 29 27
66 65 63 63 64 61 61 61 62 62 62 58 58 56 58 53 55 53 51 51 49 50 53 61 56 54 52 51 51 48 48 48 42 40 45 35 30 33 35 27 32 33 33 31 29
67 66 60 63 64 65 64 64 63 63 60 56 57 56 57 58 59 57 52 50 52 53 54 52 62 59 50 50 47 47 49 50 45 42 47 49 35 34 32 32 27 32 34 31 28
66 65 63 63 64 64 64 60 55 56 60 59 57 57 61 59 61 60 55 53 54 55 56 57 54 53 58 55 53 52 52 50 49 47 49 46 43 36 34 33 28 29 32 30 31
69 66 62 63 64 66 62 58 57 55 59 61 62 62 61 59 56 56 54 53 52 52 54 54 52 55 55 59 56 54 55 51 51 49 52 51 51 47 39 35 34 30 28 29 31
66 66 63 64 66 67 65 61 58 57 59 61 61 62 64 62 59 55 52 47 46 46 46 46 50 52 54 53 56 56 51 52 52 52 53 54 58 50 48 42 39 31 26 20 24
71 67 68 64 61 63 60 61 59 59 61 62 60 60 60 62 58 55 53 50 47 44 41 43 45 48 53 53 53 54 53 54 53 53 54 56 61 57 50 47 38 32 30 25 30
70 67 66 64 63 60 62 61 62 63 66 65 61 60 59 57 55 54 50 49 48 46 41 36 40 45 44 46 53 53 52 53 55 56 62 58 60 67 55 47 40 35 33 31 30
66 65 64 61 59 61 61 63 61 64 63 63 60 58 55 55 53 52 53 52 48 47 44 47 48 50 47 47 47 58 56 53 55 59 69 63 65 68 60 50 41 39 40 38 33
62 64 62 59 59 61 60 61 63 63 64 59 57 57 55 54 53 49 51 50 47 44 43 46 50 50 50 48 45 47 52 56 59 63 64 72 71 70 63 54 43 41 40 41 38
64 63 59 59 59 61 59 59 61 60 56 57 57 55 57 56 52 51 50 46 42 40 43 45 48 47 50 46 42 42 50 43 54 55 58 63 67 72 66 58 46 41 42 41 38
67 64 60 59 60 60 59 59 56 54 53 56 56 53 53 50 53 53 50 46 43 43 44 45 47 49 53 54 55 51 39 46 51 54 62 62 64 69 67 61 54 47 42 41 44
66 63 60 61 61 60 62 61 55 60 57 54 51 50 47 47 47 46 47 46 45 45 48 50 52 52 50 50 53 53 53 48 47 50 55 58 63 63 63 58 55 44 44 43 41
65 62 60 63 66 67 63 67 72 46 62 55 50 50 46 43 44 45 45 44 46 46 49 49 54 57 56 40 34 44 57 54 52 49 52 55 59 60 60 58 54 40 42 44 44
60 56 59 65 70 67 61 60 68 65 58 56 55 53 50 48 45 43 44 46 49 47 47 50 54 56 61 63 44 40 40 45 48 49 58 58 55 50 55 57 51 44 42 42 43
56 61 62 65 66 64 64 60 62 65 66 64 62 58 53 49 46 47 44 45 48 48 49 49 54 55 55 52 54 56 49 45 46 43 41 47 47 53 50 52 49 40 38 40 46
53 57 58 58 60 59 58 56 58 58 60 60 59 58 54 52 49 50 50 54 49 46 50 52 52 55 57 59 53 54 67 59 56 45 51 36 46 43 44 52 53 48 42 43 43
47 47 47 49 51 53 53 50 47 48 48 49 49 49 45 46 46 45 47 51 51 52 48 49 53 56 57 56 51 61 55 64 59 42 46 45 49 46 42 43 50 49 50 47 45
44 41 38 39 43 46 48 45 40 37 36 37 37 38 40 38 41 45 51 53 51 51 52 50 47 58 64 59 56 62 54 59 59 54 47 43 35 39 40 46 45 47 49 45 42

GFSSW_500_spd_117.txt.gz
Wind_Speed
66 65 63 62 63 61 63 64 66 64 63 64 63 60 67 63 62 59 59 58 58 55 57 54 49 47 43 39 36 33 30 25 26 29 28 29 29 24 24 19 19 19 12 11 11
69 68 66 65 64 64 65 67 70 65 65 66 65 61 63 64 65 64 61 58 60 58 54 55 53 49 49 43 38 36 30 31 31 31 26 28 28 25 24 22 20 19 15 13 13
71 69 67 67 65 65 66 67 67 68 66 65 66 64 62 66 63 60 63 60 59 59 57 53 54 52 49 51 44 39 31 30 31 29 25 26 29 27 28 24 23 19 18 15 16
75 71 69 68 65 63 63 65 64 67 67 64 65 65 63 63 64 59 62 62 59 58 56 56 52 52 50 49 48 42 36 34 30 32 28 27 26 28 29 25 24 22 21 18 18
73 73 71 67 63 63 63 64 66 66 64 62 63 64 63 63 61 63 60 61 61 58 55 55 54 53 51 51 49 45 41 38 34 33 32 27 29 32 30 27 24 24 23 21 20
72 70 70 68 64 62 63 64 64 63 64 62 40 56 60 61 62 63 59 60 61 59 56 54 53 53 52 50 50 46 43 40 38 36 36 29 31 33 28 27 25 24 25 23 23
70 68 67 66 67 64 63 63 62 63 64 64 67 61 62 56 64 67 60 59 59 63 58 54 54 53 50 47 48 45 44 43 39 39 32 28 33 30 32 29 25 26 25 25 24
67 65 64 64 65 65 63 62 61 63 64 64 66 64 61 55 57 64 62 57 56 59 61 58 56 55 51 49 47 47 46 44 42 41 40 39 27 26 26 29 29 28 26 27 25
68 64 60 62 64 63 62 62 62 64 65 66 68 66 63 56 51 53 52 50 52 55 59 59 58 54 53 50 48 47 48 46 43 43 43 44 30 33 30 28 28 29 28 27 27
73 64 60 62 61 62 61 62 65 68 70 69 68 68 62 52 51 49 49 47 45 45 52 55 59 58 53 53 51 47 44 45 44 45 45 43 29 34 37 29 29 31 32 29 27
75 67 65 64 63 62 65 68 72 73 72 69 62 60 56 55 53 51 48 45 49 46 46 51 53 55 50 51 50 49 47 46 43 45 48 47 42 35 41 41 32 28 28 30 28
80 66 61 70 63 65 66 65 60 59 64 66 64 63 61 56 54 52 50 45 47 51 50 50 46 47 57 55 49 50 50 50 47 48 53 51 48 42 41 42 34 30 29 22 25
78 78 66 69 63 64 63 61 63 64 65 66 66 63 61 58 54 53 52 49 49 51 50 50 48 46 48 57 57 52 50 48 50 49 52 55 55 47 47 46 35 31 30 24 20
75 55 69 70 68 68 64 63 61 63 66 69 68 68 64 59 58 55 53 50 50 50 50 51 49 49 48 48 51 56 52 50 52 52 52 56 61 51 49 47 44 35 27 22 23
79 73 63 73 70 69 60 62 60 61 66 68 69 68 66 64 58 56 53 52 52 51 50 49 49 51 50 47 52 48 53 56 55 56 56 57 63 56 51 50 42 39 37 29 27
87 60 71 73 68 65 62 59 62 67 69 68 66 64 65 62 58 58 54 50 49 49 47 50 48 49 48 48 49 51 53 53 56 57 63 56 61 67 54 50 43 42 38 35 34
78 75 72 73 66 65 62 60 60 64 63 65 61 58 57 57 56 58 58 55 52 50 49 48 48 50 49 48 48 54 56 57 57 59 59 60 66 71 60 54 47 44 42 40 39
72 69 74 70 69 67 64 63 57 66 65 61 57 58 59 60 61 58 61 59 55 50 50 49 48 46 47 49 50 49 51 56 60 62 55 64 66 68 64 59 50 43 44 43 41
65 74 75 70 69 67 64 65 63 65 63 62 58 59 62 62 61 60 56 54 53 52 53 54 51 46 47 45 46 43 43 41 48 52 58 64 55 55 60 62 58 49 46 43 42
79 79 73 69 70 64 69 66 64 63 62 62 62 59 59 60 59 56 53 51 52 52 52 50 51 51 53 52 49 47 43 38 41 44 47 48 51 53 54 54 57 53 48 46 46
81 76 71 69 68 65 68 66 62 63 62 61 58 57 56 57 53 51 49 52 52 52 54 51 52 53 54 55 52 49 48 40 42 48 46 42 40 39 47 49 52 51 46 48 48
81 78 72 70 68 64 65 62 58 59 59 57 56 54 50 48 50 51 51 51 51 50 48 49 52 51 51 48 44 50 52 49 50 47 51 52 42 35 38 37 38 43 42 44 48
81 73 69 68 68 61 62 59 56 54 55 53 53 50 47 49 49 50 50 53 53 50 50 50 51 50 49 47 46 45 47 47 47 50 50 50 33 35 37 38 35 37 36 34 40
78 75 70 68 64 63 59 55 54 51 50 51 51 50 50 52 52 49 48 48 49 49 49 49 50 50 47 42 44 47 43 45 37 42 38 45 36 40 39 37 32 32 31 29 33
67 66 66 69 69 61 53 52 54 54 53 51 52 51 51 52 50 47 43 43 44 42 34 40 43 46 48 48 47 49 54 53 45 43 48 35 41 31 29 27 30 29 30 30 30
61 60 58 54 54 53 52 44 47 51 52 50 49 53 51 45 45 45 43 43 43 41 39 41 44 46 45 46 47 52 51 54 55 57 51 48 47 34 35 30 35 36 32 25 29
56 53 49 51 49 50 44 43 46 46 50 59 52 48 49 48 44 41 41 43 45 47 49 44 39 42 50 50 51 46 53 53 54 53 61 60 46 40 43 40 35 35 36 36 37

GFSSW_500_spd_123.txt.gz
Wind_Speed
75 74 73 73 73 70 68 66 64 64 59 60 59 57 54 50 48 48 44 45 46 50 50 49 49 47 47 44 34 31 28 28 27 26 22 22 19 21 22 22 21 20 18 16 15
77 75 75 74 75 73 69 66 64 64 61 59 58 57 54 53 50 48 46 46 47 48 50 48 48 51 48 46 41 34 32 30 29 27 24 22 21 19 20 22 21 20 18 18 17
76 75 74 75 76 74 71 68 64 63 62 60 57 57 56 54 48 45 46 41 45 45 48 50 49 50 53 49 50 42 39 36 32 30 27 22 20 19 19 20 23 22 17 19 18
72 71 72 72 74 75 73 70 67 64 62 62 61 58 59 55 51 48 49 51 47 43 48 50 49 50 49 52 49 49 45 41 37 31 33 28 23 20 19 22 24 22 19 20 18
70 68 67 68 70 74 75 74 71 67 64 64 64 62 59 62 53 53 49 49 48 49 49 48 52 50 53 50 52 50 48 50 40 39 30 28 26 22 21 21 25 25 25 23 20
70 69 68 68 70 74 77 76 72 69 67 65 66 64 61 60 56 50 49 51 49 47 45 48 50 52 52 52 51 51 46 50 48 42 39 32 28 22 23 25 24 26 28 26 24
73 73 73 73 72 73 75 75 71 68 66 63 59 58 59 56 53 54 55 49 52 48 48 49 51 54 55 54 54 52 49 48 47 48 42 40 36 20 27 28 25 25 28 28 27
74 73 72 71 71 75 75 75 72 69 66 63 60 62 57 55 56 55 53 53 48 50 51 51 53 53 57 55 55 54 53 51 48 45 46 43 37 26 32 30 27 26 26 29 28
74 73 73 71 68 63 63 65 69 70 67 65 62 63 64 58 45 49 51 52 49 54 55 54 54 57 56 54 54 56 54 53 50 47 47 47 39 30 35 31 27 28 28 27 27
75 75 74 74 69 68 64 62 60 65 69 68 66 65 63 58 64 47 42 45 45 47 60 58 59 57 55 56 52 54 55 55 51 48 50 46 42 34 39 35 32 30 27 25 27
80 77 75 73 70 67 66 64 63 65 67 68 70 70 66 58 58 54 53 39 38 44 49 57 61 59 53 52 55 48 56 53 51 50 51 50 48 36 42 40 35 34 28 21 21
79 81 77 74 69 68 66 66 64 61 61 65 67 66 65 64 57 54 52 47 47 47 48 55 59 53 53 53 54 51 51 54 51 51 52 51 52 39 43 41 38 33 32 25 24
68 80 80 75 73 67 69 68 61 61 63 59 60 64 65 63 59 53 43 45 40 41 41 45 47 52 53 52 53 53 49 50 55 51 53 52 55 43 42 45 41 36 30 28 26
54 76 81 77 77 73 74 73 63 63 62 65 61 62 65 64 59 54 59 53 41 34 32 31 38 46 50 51 48 49 53 49 54 54 53 53 57 45 44 44 41 39 33 29 28
63 59 82 82 79 76 63 63 66 68 68 63 63 60 64 66 64 54 58 68 61 54 44 39 37 39 40 44 48 48 46 50 51 54 55 51 55 44 43 43 40 39 37 35 33
64 62 79 83 79 72 65 63 70 70 72 67 61 61 62 67 64 61 57 59 65 58 47 42 40 39 38 40 42 41 40 42 46 49 53 45 50 49 37 41 40 41 40 40 37
63 72 77 85 82 69 50 71 72 71 69 63 58 57 60 63 64 63 60 62 62 54 52 48 44 44 43 40 36 37 37 38 41 42 46 51 56 56 38 37 38 42 42 42 41
63 71 76 81 87 84 71 86 73 73 67 53 52 55 57 61 62 61 60 58 58 60 48 47 44 45 46 45 41 41 42 42 41 41 38 43 46 50 45 43 44 42 46 46 45
63 72 83 90 78 71 78 70 77 83 64 60 58 56 59 58 61 61 57 58 58 61 52 38 47 45 42 39 42 42 42 39 41 43 45 44 36 39 40 35 42 45 45 47 48
65 71 86 95 74 79 77 79 84 79 55 57 59 58 56 58 60 59 59 58 56 60 60 46 46 46 44 43 42 41 39 40 40 44 45 42 40 32 36 37 38 43 47 50 51
65 80 87 90 89 67 80 84 76 73 62 60 54 53 50 52 52 55 53 54 57 55 56 51 46 48 48 43 41 41 39 39 37 40 42 43 35 31 35 35 32 35 42 49 51
65 73 84 93 81 75 75 65 76 68 58 55 52 44 44 45 51 51 51 51 54 54 54 51 50 50 49 48 47 44 40 39 35 38 39 42 30 32 35 34 34 33 34 34 42
66 78 84 98 71 63 66 68 79 66 55 47 50 43 41 45 46 49 49 50 52 54 54 53 52 53 54 51 49 46 42 40 41 44 41 41 27 30 31 33 31 28 26 31 30
69 78 89 81 72 73 76 76 79 66 48 50 48 42 42 44 44 43 48 48 50 50 50 50 48 49 50 52 52 50 46 44 46 51 48 44 27 31 33 35 36 32 32 29 33
63 75 90 91 72 72 67 53 64 56 52 56 46 39 39 43 44 45 41 40 42 43 45 46 49 51 53 54 53 50 47 48 48 48 58 39 45 37 40 42 42 39 35 35 38
70 76 71 87 58 62 67 55 56 55 49 43 47 41 37 38 39 39 38 40 43 45 47 49 47 48 51 53 53 49 48 49 51 52 52 54 42 40 41 36 35 35 33 34 34
71 80 80 68 61 55 62 60 49 51 45 40 37 33 34 35 36 36 36 35 36 36 40 43 43 45 48 46 47 52 48 47 48 49 50 53 34 39 44 40 35 34 35 38 36

GFSSW_500_spd_129.txt.gz
Wind_Speed
63 64 64 64 63 62 62 62 61 61 60 59 59 57 54 54 54 54 51 50 50 51 53 53 56 55 51 49 46 46 51 45 39 32 33 31 32 28 27 26 24 23 23 21 19
63 63 63 65 65 65 65 65 65 64 63 63 62 61 59 57 57 56 54 54 55 55 56 55 57 57 54 54 50 48 51 48 45 38 33 31 31 29 27 27 24 24 24 21 22
67 67 67 67 67 68 68 67 67 67 67 66 65 65 63 62 62 58 58 57 56 59 58 57 57 57 56 53 52 50 49 48 44 45 41 34 31 28 28 26 27 25 22 23 24
71 71 70 68 68 68 68 69 68 68 69 69 68 68 66 66 66 64 61 59 57 58 59 61 59 57 52 50 47 49 50 52 48 42 47 40 31 29 28 30 26 24 21 25 26
71 70 70 69 68 67 66 68 69 69 70 70 71 71 69 71 69 63 60 59 58 58 59 61 58 53 54 51 49 46 47 51 52 45 43 44 35 30 30 31 27 24 23 25 26
72 73 72 72 71 69 67 67 68 70 70 71 72 72 73 74 67 65 62 61 61 60 59 57 55 55 55 54 52 53 49 47 51 51 45 47 45 36 34 32 29 25 25 24 25
74 74 73 73 72 70 69 68 67 68 69 70 72 73 72 70 67 66 63 64 62 61 61 60 57 54 51 52 51 47 48 51 49 51 51 48 45 45 42 36 33 27 27 25 25
76 73 72 71 70 70 68 68 65 66 67 69 72 73 72 67 65 65 65 67 63 59 59 58 57 55 52 52 48 49 50 47 46 51 53 51 48 45 49 45 33 31 29 26 26
76 73 70 68 68 69 68 68 66 66 69 70 72 74 74 70 66 65 64 63 62 60 59 56 56 55 55 53 52 50 48 48 48 49 52 54 53 47 46 38 42 33 32 27 26
78 75 73 70 68 67 67 68 66 67 66 69 73 77 75 73 70 66 64 63 63 61 59 59 58 57 51 55 54 52 53 51 52 53 51 49 51 50 46 44 43 45 35 30 27
82 81 79 75 71 67 68 69 69 69 71 71 68 74 70 69 69 68 65 59 56 57 57 60 60 58 50 52 50 52 52 50 52 58 52 51 54 50 50 49 47 47 48 36 30
86 84 82 80 75 73 73 72 67 70 71 69 61 59 63 67 68 68 65 64 59 56 55 56 57 49 55 49 52 53 54 51 51 51 50 52 55 56 47 51 49 45 43 40 36
84 84 83 81 79 79 77 71 67 69 70 71 66 59 58 60 65 65 65 60 58 55 53 54 42 50 53 54 56 54 52 51 53 52 48 52 52 56 46 49 52 46 44 40 39
76 76 75 75 80 80 78 72 68 69 68 74 71 59 57 56 59 64 63 63 62 58 53 45 43 45 48 55 53 53 53 58 56 55 52 55 53 52 51 49 48 48 46 43 42
65 65 66 71 75 81 76 77 70 63 77 70 69 67 59 58 55 56 61 63 62 59 54 53 45 38 41 38 45 43 46 48 48 49 55 54 58 43 50 46 52 49 48 49 48
39 45 57 63 70 71 77 76 73 69 83 46 76 72 69 60 57 56 60 62 60 58 56 52 51 50 47 47 47 44 44 43 44 50 51 43 55 50 48 45 48 51 47 51 52
52 52 50 50 59 67 73 78 81 78 75 88 54 72 69 71 53 56 59 62 60 60 56 50 47 47 47 53 58 58 51 44 45 47 45 46 50 47 48 47 45 45 49 51 54
58 57 58 57 56 62 70 79 82 88 72 62 76 60 74 69 60 52 56 56 58 56 53 50 52 50 45 53 53 43 46 43 41 43 38 48 45 46 49 51 50 44 47 52 53
54 58 54 54 53 71 74 81 87 84 77 78 70 52 71 74 60 58 54 58 53 54 54 53 52 52 47 39 28 42 41 39 43 41 39 39 35 38 47 46 48 51 46 47 55
51 55 52 51 49 74 70 87 71 87 61 79 66 54 69 63 72 52 49 48 52 54 51 55 56 63 49 47 41 34 30 33 36 38 41 38 39 38 38 37 43 43 50 50 50
45 52 53 51 49 67 70 90 63 79 92 72 78 64 50 59 58 63 50 44 44 46 54 57 57 61 66 60 50 43 41 40 40 41 40 36 33 34 33 34 34 37 41 42 46
37 51 51 56 56 55 63 80 92 47 64 78 69 52 64 56 54 52 56 45 43 48 53 57 56 57 59 58 55 54 37 42 48 46 44 43 37 38 35 36 39 37 38 39 42
41 32 46 55 60 58 55 60 74 76 42 35 61 56 51 48 53 55 48 42 44 46 50 54 59 58 57 50 45 39 40 45 38 40 42 44 44 42 40 40 44 36 37 35 33
53 54 49 62 60 40 54 66 70 81 47 40 40 58 66 53 38 36 37 40 42 43 47 49 52 53 54 52 50 44 43 36 39 41 39 44 38 39 43 43 42 31 29 37 37
47 46 54 62 63 33 38 68 90 76 73 54 49 45 53 56 49 40 34 32 35 37 41 44 47 48 49 51 54 55 55 58 57 36 42 38 40 41 43 49 47 46 46 44 44
53 56 48 54 57 42 37 69 73 64 62 43 52 46 44 43 35 32 35 33 38 37 39 39 41 45 47 47 51 51 52 52 54 54 49 41 46 41 45 48 50 56 53 52 51
56 46 44 58 58 50 40 62 74 68 72 46 44 40 46 43 38 35 29 28 26 30 32 36 38 42 44 46 48 51 51 51 49 48 45 46 38 46 47 53 54 56 59 58 57

GFSSW_500_spd_132.txt.gz
Wind_Speed
59 58 58 56 56 55 54 53 53 53 53 52 51 51 50 48 47 48 46 45 43 42 42 41 42 42 41 41 42 44 44 45 39 38 40 42 37 37 32 29 32 32 29 27 24
60 60 60 59 59 59 58 56 57 57 57 56 56 55 54 52 51 50 49 47 47 48 47 46 46 44 43 43 43 46 46 46 43 43 40 40 37 42 32 31 29 33 32 29 26
61 62 62 62 61 60 60 60 60 60 60 59 59 57 57 57 55 52 53 52 51 51 50 50 51 50 47 47 47 47 50 48 46 51 41 40 40 40 33 30 31 29 31 28 29
63 64 63 62 61 60 60 59 60 61 62 62 62 60 60 61 58 56 55 54 54 54 53 53 52 52 52 52 51 51 51 50 48 50 40 43 43 40 37 31 32 30 32 26 31
67 66 65 64 64 63 63 63 64 64 64 65 65 64 63 63 60 58 56 56 57 57 56 55 55 55 55 55 55 55 51 55 56 49 42 45 45 42 43 36 33 31 33 30 31
69 68 67 67 66 65 65 64 65 65 65 66 66 65 66 62 61 62 61 60 61 62 60 60 57 57 58 54 57 55 54 53 54 48 46 44 45 48 41 39 37 31 35 33 30
72 71 70 68 67 65 64 63 64 64 66 65 66 66 67 61 63 64 62 63 63 63 64 63 61 60 56 56 56 57 57 57 58 53 50 49 43 46 45 43 38 35 38 35 30
72 71 70 68 66 65 65 65 65 65 65 66 66 67 67 62 64 64 66 64 66 65 63 62 61 60 58 58 57 57 58 57 54 54 53 50 43 44 49 48 43 43 42 41 34
73 71 69 68 67 66 66 67 66 66 66 67 69 68 66 64 66 66 69 67 65 64 63 62 60 59 59 59 58 59 56 53 51 53 51 53 43 43 50 51 47 44 46 45 39
72 72 70 69 67 67 66 67 67 67 67 70 71 72 72 71 68 66 66 64 65 61 62 63 62 63 62 64 61 54 53 52 51 52 52 51 42 43 50 49 50 46 46 43 40
74 73 72 70 68 65 66 68 68 70 71 75 72 69 68 64 63 64 64 63 62 61 61 62 65 65 60 59 55 53 53 55 54 54 57 53 47 46 47 50 45 51 48 45 39
75 73 74 72 70 69 70 68 64 67 69 65 61 62 62 62 64 64 64 63 61 61 56 57 59 51 55 53 54 53 54 52 52 56 55 55 49 51 48 46 46 43 49 49 42
78 76 76 75 74 76 74 68 67 68 68 66 64 57 57 63 61 59 63 62 64 63 63 62 49 49 55 56 57 56 56 52 54 57 55 56 51 49 47 47 49 47 45 49 49
80 78 77 76 79 76 74 70 71 71 68 68 61 64 60 62 61 60 57 63 64 64 62 62 55 53 51 51 50 55 52 53 51 55 54 58 56 48 46 43 45 46 46 43 45
82 79 78 79 77 76 71 74 75 71 71 65 67 60 58 61 55 56 56 59 64 65 62 61 58 56 54 48 47 42 49 51 53 56 56 56 59 46 48 44 45 47 46 47 49
75 75 74 74 76 72 74 73 75 72 72 73 48 58 64 61 59 59 56 56 54 62 62 60 59 52 47 43 40 42 42 43 45 48 55 51 55 50 43 44 48 47 47 51 51
55 59 66 68 69 69 72 69 68 76 76 57 67 63 54 67 64 60 59 59 61 56 60 62 60 55 50 49 42 40 38 38 40 45 50 49 46 45 41 44 46 45 49 51 50
42 40 41 49 58 61 59 65 63 75 77 78 38 39 61 60 66 64 60 59 51 52 53 58 60 57 51 46 43 39 42 46 51 55 48 50 46 45 45 39 40 42 47 48 50
52 52 54 53 53 53 59 69 74 62 77 78 81 55 33 58 64 64 68 62 62 52 53 52 56 55 55 50 47 49 47 48 61 61 62 57 50 46 46 43 45 42 47 46 47
53 54 53 51 55 55 65 72 75 58 71 69 66 78 77 59 65 68 63 65 47 43 47 48 50 52 49 50 48 43 44 46 52 51 43 43 45 39 37 36 37 34 31 37 40
48 48 46 47 49 60 57 72 73 61 67 78 53 65 61 66 67 42 57 61 57 50 41 44 50 51 50 50 48 46 47 52 33 35 35 34 32 32 35 35 31 33 29 33 36
43 45 47 48 52 53 62 58 75 64 69 62 80 65 46 40 44 52 44 58 45 42 46 43 45 45 47 42 37 43 47 43 32 29 25 29 29 35 36 39 36 33 26 27 32
41 41 44 48 56 60 48 56 69 75 53 70 55 69 76 58 40 47 43 49 59 41 38 41 48 47 49 53 57 56 50 44 47 46 44 37 36 39 41 42 41 34 32 33 35
41 42 44 51 56 56 39 40 67 73 50 60 62 46 53 52 43 32 38 50 45 54 44 40 44 46 46 48 54 55 55 48 45 49 46 42 37 38 38 35 41 42 36 39 41
45 39 45 48 55 55 35 23 41 60 54 61 58 62 56 65 51 48 37 40 40 41 45 41 39 42 43 48 50 50 51 45 41 36 35 29 28 29 35 40 43 47 38 42 46
50 30 41 43 33 44 47 36 38 58 68 48 51 56 73 52 43 42 31 32 37 37 31 33 36 37 38 40 41 45 49 41 44 42 43 41 36 33 43 45 47 50 52 49 45
39 33 30 41 35 47 43 47 34 56 69 55 37 43 52 49 48 45 38 27 24 23 25 29 33 34 37 39 41 43 40 42 44 45 46 48 45 44 43 46 48 52 52 55 58

GFSSW_500_spd_135.txt.gz
Wind_Speed
55 55 54 54 54 53 52 51 50 48 46 46 46 45 44 43 41 39 37 38 37 37 38 37 35 34 32 33 33 34 34 31 31 36 38 37 32 27 30 33 37 37 38 31 29
60 59 57 57 56 57 56 55 53 51 50 49 48 47 46 46 43 42 39 41 40 39 40 39 39 37 36 37 36 36 36 34 35 38 39 41 35 36 28 33 37 38 38 33 28
64 62 61 60 60 59 59 59 57 55 54 53 52 50 50 49 48 44 45 44 43 42 42 41 41 41 40 41 40 38 39 39 38 41 41 39 42 39 30 31 36 39 32 31 29
66 65 63 63 62 61 61 61 59 59 58 57 56 54 53 53 51 49 46 45 47 47 45 44 44 45 43 43 43 43 43 43 41 45 44 40 44 44 38 31 34 38 36 28 29
66 65 64 63 63 62 62 62 62 62 61 60 59 57 56 53 51 52 49 49 50 50 48 49 49 48 47 45 47 47 43 47 47 47 47 41 43 45 38 31 33 38 41 37 29
68 69 67 66 65 64 64 64 65 64 62 61 60 58 56 55 55 56 55 53 53 53 53 53 51 52 51 49 49 49 50 50 48 51 48 44 43 47 36 35 34 39 39 43 33
66 67 70 71 67 65 65 65 64 64 64 62 61 61 60 57 58 59 56 56 56 57 56 55 55 55 52 52 54 53 53 53 49 48 48 49 47 45 42 40 37 38 42 43 42
71 73 69 66 67 66 65 64 65 65 65 65 65 65 61 60 59 59 59 58 59 57 56 56 56 57 56 56 57 56 57 56 47 47 50 51 49 43 47 46 41 39 43 44 47
71 69 69 68 67 67 67 68 68 68 67 68 67 65 61 60 60 61 61 58 59 58 56 57 58 56 56 59 60 61 59 55 51 51 53 54 50 46 47 48 42 40 43 47 48
71 71 71 69 69 69 69 69 69 68 68 69 69 67 64 62 59 59 60 58 59 59 58 58 59 59 59 61 62 58 56 54 54 51 56 58 53 49 46 47 45 40 42 46 48
73 72 71 71 70 70 71 70 69 70 70 72 69 65 63 61 57 59 60 59 60 62 61 60 60 58 60 57 56 57 58 57 56 54 57 57 53 47 45 45 43 40 40 45 44
77 75 73 71 71 71 72 70 67 68 67 68 67 66 66 64 62 60 61 61 62 63 60 62 60 56 55 54 56 57 58 57 57 56 57 56 56 50 49 45 43 45 46 46 47
79 77 75 74 73 72 71 68 67 68 69 70 68 65 61 64 62 59 59 61 62 61 61 61 56 54 58 57 56 55 54 55 55 51 56 55 56 48 45 42 43 44 48 52 51
79 78 76 74 75 73 72 69 69 70 74 72 69 67 64 64 63 59 60 58 60 60 59 60 57 56 55 53 52 53 47 50 52 50 52 52 60 49 44 42 42 45 50 52 52
78 77 75 76 73 71 70 69 69 69 76 76 71 67 63 64 57 55 54 56 56 56 59 58 55 54 58 53 53 50 47 48 51 54 55 51 55 47 41 40 43 47 49 53 53
78 78 78 77 74 72 73 72 73 71 71 77 73 69 67 64 62 62 58 51 52 54 53 52 59 59 55 54 54 51 51 48 49 44 49 48 49 46 37 39 43 47 49 53 56
80 79 79 78 72 72 71 75 76 68 78 74 74 70 67 62 59 60 58 53 52 52 51 51 53 56 59 56 55 50 48 47 47 49 51 44 47 41 40 42 44 45 50 52 53
78 75 74 73 72 71 72 75 65 73 77 78 73 67 67 62 62 60 57 57 53 53 51 51 51 52 54 57 51 45 43 43 41 43 46 44 46 34 37 37 39 44 45 45 49
57 58 60 62 64 66 69 72 78 78 75 74 73 68 65 60 52 59 61 55 54 53 56 54 51 47 41 46 51 48 47 43 45 45 44 44 42 40 43 48 44 41 44 47 50
43 48 48 52 52 57 63 62 70 73 69 69 68 67 68 65 65 56 55 54 54 56 54 52 46 42 44 43 48 52 46 48 49 46 44 47 53 57 56 54 50 50 47 41 43
54 58 53 52 51 59 65 67 62 60 57 45 53 60 64 52 54 62 66 62 53 59 55 49 47 42 41 44 43 49 54 48 48 49 46 54 44 45 48 37 38 38 35 29 29
52 51 53 56 58 54 65 62 42 55 60 41 36 50 60 52 43 45 68 64 52 45 54 50 44 42 37 37 41 45 49 51 49 48 45 30 21 14 19 25 30 29 32 32 27
42 44 47 51 54 57 52 65 62 41 59 58 44 44 50 70 59 48 44 30 37 49 48 52 49 44 41 38 40 45 46 48 49 50 54 36 33 24 25 30 38 41 40 39 36
39 41 43 44 48 53 51 49 58 59 50 60 44 37 46 42 66 71 63 53 48 35 39 49 51 50 45 39 38 36 40 45 43 50 46 48 36 33 34 38 42 42 43 39 39
41 41 46 45 52 51 50 54 50 41 48 54 66 37 53 46 44 46 35 53 49 47 42 50 47 40 42 37 37 39 40 48 53 49 45 41 41 35 34 38 44 31 32 36 41
36 38 36 35 38 40 44 37 46 33 44 48 67 54 44 57 50 38 27 32 41 46 41 42 49 48 37 36 39 37 34 39 42 47 52 50 47 40 42 37 37 36 38 41 43
38 38 31 32 34 41 47 40 29 33 39 52 36 42 44 59 56 30 32 29 23 24 34 37 34 34 41 41 38 43 38 37 38 35 36 41 36 47 44 42 44 42 40 40 47

GFSSW_500_spd_138.txt.gz
Wind_Speed
57 56 55 55 55 55 54 53 51 49 47 46 45 43 41 39 37 35 33 35 35 32 32 32 30 27 28 28 26 26 23 23 26 27 27 27 26 26 29 30 31 28 28 27 31
59 56 56 57 58 58 56 55 53 52 50 49 47 47 45 43 41 38 35 39 39 36 34 33 33 31 31 32 29 28 26 26 28 29 29 30 29 29 30 33 33 31 31 29 29
58 55 54 57 57 58 59 58 57 55 53 51 49 48 46 44 42 40 40 39 41 39 37 34 34 34 33 34 32 31 28 30 30 30 30 32 31 32 31 33 35 34 31 31 27
62 61 62 61 61 60 60 60 60 59 58 56 54 52 49 48 47 45 41 41 43 43 41 38 37 38 36 37 37 34 32 33 32 34 34 34 33 36 35 33 36 37 33 31 29
75 67 68 71 68 63 63 62 61 61 59 58 58 55 54 53 50 49 45 47 47 47 45 43 42 41 40 40 40 38 35 37 37 37 37 35 35 39 37 34 37 38 36 33 29
72 71 68 69 68 67 66 65 64 63 62 61 61 59 58 57 54 55 51 49 48 48 48 46 45 45 44 42 42 41 41 40 41 39 39 39 38 42 35 38 39 39 38 34 32
70 65 70 72 69 66 68 67 65 63 63 62 62 62 61 59 59 56 55 52 51 50 49 48 48 47 45 45 46 45 46 46 44 40 42 44 44 40 41 42 41 39 39 40 36
87 77 68 67 80 76 64 65 64 64 63 63 64 62 62 60 60 59 58 55 53 51 51 50 50 50 50 49 51 49 49 48 44 45 45 48 46 40 42 44 41 41 41 40 38
65 76 75 72 72 75 71 65 71 66 61 65 65 63 62 61 60 60 58 55 54 52 51 52 53 53 52 53 52 52 50 48 48 48 50 51 49 45 44 47 45 44 43 42 41
66 67 75 75 81 70 68 68 64 68 72 68 65 66 65 61 60 59 58 57 55 55 55 54 54 53 54 55 52 52 51 51 52 51 54 53 51 49 48 49 46 43 43 42 38
68 68 69 69 68 69 78 72 71 67 69 67 69 67 65 61 57 57 58 58 58 57 57 57 56 54 55 55 54 54 54 55 56 55 57 55 54 51 51 51 45 44 45 41 38
71 70 69 69 70 71 71 68 69 68 67 68 68 67 66 65 61 60 61 61 59 58 58 59 57 55 55 55 56 56 57 58 57 54 55 57 56 54 50 49 47 44 45 44 42
71 72 71 70 71 71 70 70 70 71 73 72 69 69 67 64 62 61 60 60 60 61 61 61 59 56 56 56 58 58 59 58 56 51 53 59 60 56 49 50 47 46 44 43 40
73 75 73 71 73 71 69 69 70 69 71 72 72 70 68 67 63 62 62 63 63 61 60 61 59 58 59 58 58 58 53 55 55 53 54 51 68 57 48 44 44 44 43 43 46
74 75 76 76 72 70 66 67 67 68 72 76 72 70 67 67 63 61 61 61 62 62 62 59 59 56 56 56 56 54 52 51 51 49 49 52 58 55 41 40 42 45 46 45 43
74 75 75 76 74 72 71 69 69 69 75 76 74 70 69 66 66 67 64 61 60 62 62 60 61 62 58 57 56 55 53 47 49 49 54 51 49 54 38 38 41 41 42 41 42
76 75 76 75 73 70 69 69 71 78 77 78 76 73 71 68 66 67 67 64 64 63 62 61 60 60 57 58 58 55 44 45 48 52 53 47 51 49 37 39 40 40 39 43 45
80 79 78 75 73 72 73 74 78 78 77 75 73 74 71 68 69 69 69 66 65 63 60 56 57 54 53 54 53 52 50 50 51 52 50 46 51 41 34 38 39 37 42 41 38
81 81 80 79 77 75 76 80 81 78 75 73 73 72 70 69 68 67 68 66 62 59 58 58 58 53 49 44 45 46 47 46 50 49 47 47 33 21 23 31 41 41 37 42 44
69 74 77 77 75 74 74 79 78 76 75 75 75 71 72 70 69 68 68 66 60 58 54 55 56 52 50 47 47 43 38 41 48 47 45 45 48 49 47 43 45 47 52 50 48
49 52 60 63 65 65 65 72 73 71 70 71 73 72 71 69 67 66 65 59 59 56 56 61 55 52 51 50 46 45 45 44 43 50 49 51 52 48 41 43 51 48 47 37 33
57 58 57 58 62 62 62 64 65 59 62 54 59 64 62 64 66 62 61 55 50 54 57 59 51 53 51 47 45 40 38 39 44 43 52 48 40 42 40 26 17 22 20 22 22
53 55 57 60 62 60 59 58 59 52 48 61 57 40 56 63 59 59 56 51 52 51 53 56 58 55 47 50 46 48 43 41 42 45 50 52 47 48 44 41 24 23 26 29 27
47 45 53 58 58 60 58 53 54 60 54 50 59 40 37 41 46 47 52 47 49 51 55 47 47 50 58 53 46 38 32 37 41 44 43 44 46 44 51 52 42 29 32 33 32
46 39 46 54 57 58 51 53 61 44 59 41 44 57 42 39 44 51 49 47 49 48 52 55 55 54 43 42 52 45 37 36 33 30 41 39 46 41 51 47 38 36 39 42 39
35 40 38 41 45 42 48 57 42 55 50 54 41 47 48 40 40 34 49 55 53 49 51 44 42 37 41 44 44 43 45 44 41 39 41 43 42 41 36 37 39 43 39 37 34
42 35 32 35 31 36 47 45 37 33 48 52 44 38 51 30 35 46 45 58 51 49 46 47 41 41 41 41 41 43 33 33 34 35 35 40 38 34 37 37 36 46 53 50 39

GFSSW_500_spd_141.txt.gz
Wind_Speed
57 58 54 54 52 52 52 50 50 48 46 44 42 40 38 37 35 33 29 29 30 29 28 26 25 24 26 24 23 21 18 18 20 19 19 17 17 19 20 21 22 24 25 27 29
59 59 58 59 57 56 55 54 52 51 50 48 46 44 42 41 39 35 35 34 34 33 33 31 29 28 29 29 27 25 21 23 23 22 20 18 18 20 22 23 23 25 26 28 30
62 60 59 57 62 61 57 57 55 54 53 51 49 48 46 44 42 39 40 37 38 36 36 34 33 31 30 31 29 27 24 26 27 26 22 21 21 21 22 25 27 26 27 28 30
61 62 58 59 60 61 59 58 57 57 56 54 53 51 49 47 47 44 41 39 40 39 37 35 35 34 32 32 32 29 27 29 29 29 27 24 23 25 25 27 30 29 28 29 31
63 63 65 58 56 57 58 57 57 58 58 57 56 54 53 52 49 47 44 43 42 41 40 38 37 37 37 35 35 33 32 33 32 33 30 29 28 30 25 30 32 33 32 32 31
60 64 63 65 60 62 59 55 57 56 58 60 59 58 57 55 52 53 48 46 45 45 45 43 41 40 40 38 38 37 35 36 37 34 33 33 35 34 27 33 32 35 36 35 32
72 65 68 65 72 64 61 63 66 61 61 59 61 61 61 57 56 57 53 52 50 49 49 48 46 43 42 42 41 41 41 41 39 35 36 39 40 34 33 36 37 37 38 39 36
77 76 69 65 69 78 72 68 73 73 68 64 63 63 63 60 60 59 57 54 53 52 52 51 49 47 46 45 45 46 46 44 41 40 40 43 41 36 38 40 40 41 41 39 36
81 79 77 73 69 73 76 73 77 65 74 71 69 64 63 63 62 61 59 58 56 54 52 53 52 51 50 49 50 50 47 44 45 44 45 45 43 40 41 44 44 44 42 39 37
66 66 68 73 77 69 68 65 67 73 74 71 71 70 71 62 60 60 58 57 56 55 54 55 55 53 52 52 52 50 49 48 47 47 49 48 44 44 46 47 48 48 44 42 39
67 66 65 65 66 73 72 76 69 71 75 73 70 68 68 61 55 58 57 55 55 55 55 54 54 52 53 53 53 53 51 51 51 51 50 50 48 48 48 50 50 48 45 43 43
68 67 65 64 64 65 66 72 74 71 69 72 75 73 75 68 66 58 57 56 54 53 54 55 53 52 54 53 52 52 53 53 54 54 54 55 51 52 51 51 53 52 49 43 43
68 67 66 67 65 66 63 61 68 73 68 68 70 70 69 71 67 64 62 59 58 58 57 57 55 53 54 55 54 54 56 57 58 58 57 58 54 54 53 53 52 52 49 45 43
69 68 64 66 70 66 63 62 62 63 65 68 66 69 70 70 62 61 63 63 61 58 59 59 57 57 56 55 58 58 57 58 59 60 59 56 62 55 53 52 49 46 45 45 45
66 68 69 71 70 66 59 60 60 59 65 65 64 65 62 63 62 60 58 60 60 60 61 56 55 57 57 57 56 56 56 58 59 60 62 59 65 53 54 52 46 39 43 44 43
66 64 64 69 70 68 63 61 60 61 70 70 67 65 63 62 63 63 62 62 61 62 62 61 62 61 59 59 57 58 59 59 59 60 63 60 59 56 50 48 46 38 42 43 40
71 70 68 67 66 63 64 66 66 70 71 73 71 67 67 64 63 63 61 59 60 61 60 60 60 60 58 60 60 59 58 58 60 62 62 57 54 56 47 41 42 39 40 40 37
71 71 71 69 68 66 68 70 73 74 71 71 72 69 66 64 63 65 66 63 61 61 60 61 60 58 57 56 56 57 56 57 59 59 59 57 60 53 42 38 41 44 40 38 37
74 73 72 71 69 69 70 73 78 75 70 69 71 70 69 65 62 65 67 65 62 61 62 62 63 60 58 56 54 54 56 49 51 53 54 56 56 49 43 39 37 30 33 33 36
78 78 77 73 72 72 74 76 76 73 70 70 70 70 70 67 66 66 68 64 62 63 62 62 64 62 58 57 56 55 51 50 43 45 48 49 44 37 36 33 40 45 45 44 43
76 76 78 76 73 75 79 81 77 71 70 68 69 68 67 68 66 66 66 60 59 58 59 61 63 61 60 59 56 53 51 51 48 46 46 43 37 36 41 43 44 46 48 44 46
52 59 67 70 70 71 75 78 76 72 72 72 70 69 66 66 67 66 64 58 57 55 58 56 60 63 61 57 54 54 53 52 51 48 44 45 45 46 39 35 38 38 41 39 34
59 60 60 61 67 67 67 67 71 73 70 72 72 69 66 67 68 67 64 59 59 59 59 58 57 59 60 59 58 56 52 49 46 43 43 40 38 43 43 44 46 45 33 33 25
56 54 59 59 63 63 64 64 65 68 67 67 68 66 66 67 67 68 65 62 61 59 57 51 55 58 57 55 47 47 48 46 44 44 43 44 37 39 42 41 42 43 46 46 52
48 53 55 61 59 59 62 61 58 56 60 48 46 56 59 64 67 65 63 58 57 54 47 48 51 49 50 55 56 48 51 45 47 42 43 40 36 35 39 42 41 41 39 44 45
48 46 46 53 53 48 55 27 48 57 59 59 49 39 52 59 58 54 55 55 50 44 46 48 52 52 50 47 48 52 52 50 53 48 43 35 32 37 31 34 37 40 40 38 38
42 40 40 38 49 47 47 54 31 38 49 44 54 49 38 47 40 42 40 44 43 47 43 45 54 31 41 50 53 57 50 42 38 42 45 49 38 37 41 39 36 35 37 37 36

GFSSW_500_spd_144.txt.gz
Wind_Speed
56 56 53 51 49 50 49 49 48 46 45 44 44 42 39 37 34 32 29 30 29 29 27 24 21 19 17 17 17 17 17 19 18 15 12 10 11 11 10 12 12 14 16 19 21
59 57 56 53 54 53 52 51 50 50 49 47 47 45 42 40 37 34 34 33 30 29 28 27 25 23 22 20 20 21 21 23 23 21 17 14 14 14 14 15 15 15 17 19 21
58 55 61 57 57 55 54 54 53 52 51 51 50 49 47 44 41 39 37 34 33 31 31 30 30 27 26 27 25 24 24 27 27 25 22 20 18 17 17 21 19 17 18 20 23
63 62 55 60 59 56 59 58 55 56 54 53 53 52 49 47 46 42 40 37 37 36 34 32 32 31 31 31 30 27 27 29 29 27 24 24 22 21 20 25 25 22 20 23 24
66 64 60 57 58 60 59 60 60 57 53 56 55 55 52 49 48 45 43 42 41 40 39 37 35 35 33 33 33 31 30 30 30 30 29 27 26 27 22 29 29 26 25 26 27
66 64 65 66 62 56 58 59 57 62 63 57 58 57 55 51 50 49 47 46 45 43 42 41 39 38 37 35 36 34 35 34 33 30 31 30 31 29 24 31 31 32 32 30 29
65 66 65 64 67 57 57 52 58 57 62 63 57 58 57 52 51 52 49 48 46 45 44 43 42 42 39 39 39 39 39 38 34 32 32 34 34 30 30 34 34 36 35 33 32
72 64 62 72 61 67 60 55 63 55 55 57 56 56 53 53 52 53 52 50 49 48 48 48 47 45 44 44 43 42 44 42 36 36 37 39 38 35 36 37 37 37 38 37 37
83 74 65 63 61 62 65 58 64 62 54 58 64 59 59 52 51 53 55 54 52 51 51 51 51 50 49 48 49 47 44 43 43 42 42 42 44 38 38 41 41 39 40 39 38
73 79 80 69 67 66 63 62 59 62 68 65 63 69 68 63 59 55 54 54 52 51 52 54 54 53 52 52 50 49 49 48 48 46 46 45 44 44 42 43 43 42 42 41 41
66 77 70 78 72 70 68 74 67 70 75 70 69 69 69 65 66 62 54 54 53 54 55 54 56 55 52 52 52 53 52 50 50 51 47 48 46 45 45 44 46 46 44 45 43
65 65 66 73 78 71 71 71 71 71 69 71 75 75 74 71 62 68 65 60 58 56 55 55 56 53 53 53 51 51 52 52 52 51 53 50 46 47 47 47 50 49 48 47 47
65 66 65 62 63 67 74 64 64 66 69 69 71 74 70 69 67 64 66 64 59 57 57 57 54 51 52 51 52 51 52 53 54 54 52 52 50 48 49 49 49 50 51 51 51
65 64 65 61 65 63 63 62 63 61 62 67 66 64 66 68 64 63 64 65 64 65 64 62 55 52 51 51 51 53 53 55 56 58 56 55 61 53 48 48 50 50 53 53 54
61 67 60 64 64 59 56 54 51 52 61 60 64 69 66 64 62 62 62 63 64 65 63 59 57 56 55 52 53 55 55 57 60 58 57 55 58 50 50 49 50 51 53 55 57
62 59 64 60 63 61 55 55 55 57 65 58 61 61 61 66 65 61 58 59 60 61 58 59 64 59 58 55 55 57 57 57 57 56 58 57 58 48 51 53 52 53 55 54 50
62 61 63 63 58 55 53 52 57 62 65 63 60 58 60 56 55 56 51 50 50 50 52 52 53 52 52 55 55 55 53 55 57 59 59 56 57 51 53 54 52 56 59 53 50
62 58 58 59 58 56 57 58 60 67 64 64 64 62 59 54 56 57 54 50 51 51 52 53 55 53 52 51 50 50 52 54 57 56 57 58 61 55 54 52 52 58 59 55 45
67 66 65 61 59 56 56 61 64 62 61 63 64 63 61 58 57 56 57 54 52 50 50 51 53 52 51 50 50 52 53 49 51 55 59 60 58 55 52 53 53 53 53 51 46
71 70 68 65 64 63 63 64 65 61 61 59 61 60 59 58 57 58 58 57 55 50 48 51 53 53 54 54 55 56 53 54 54 56 57 59 57 56 52 51 45 42 41 41 42
74 73 69 67 66 61 63 69 68 64 63 59 58 58 57 58 56 55 56 54 54 51 48 51 54 54 54 55 56 56 55 56 54 54 55 56 59 56 53 44 39 35 37 41 44
76 78 71 69 67 70 71 70 67 65 65 64 61 58 58 57 57 58 54 50 52 51 52 49 51 56 54 55 55 57 55 56 58 55 53 55 60 56 50 46 44 42 39 38 41
67 75 74 73 73 72 72 70 68 66 64 65 63 61 59 60 61 60 57 53 53 54 53 49 51 52 57 60 61 61 59 58 55 47 55 55 57 50 44 42 38 39 38 39 40
54 56 58 64 66 68 71 72 71 69 68 67 66 64 62 62 61 60 59 56 54 54 55 52 52 58 60 57 57 58 56 53 49 52 55 53 46 44 43 42 41 37 39 41 41
53 57 66 67 66 65 63 65 67 70 71 70 70 69 67 66 64 63 60 59 59 57 57 49 47 54 58 56 57 60 59 56 56 49 45 47 46 38 38 41 41 41 39 40 38
54 55 55 61 64 62 66 62 63 60 65 66 69 68 67 69 67 64 62 63 61 53 47 43 53 45 43 48 42 51 53 58 55 53 52 48 44 38 38 34 35 35 33 33 34
53 55 48 58 55 59 58 63 46 59 56 51 50 52 58 61 57 57 58 60 60 59 45 38 41 45 53 50 52 54 50 48 48 48 49 49 43 40 46 47 42 38 39 38 37

GFSSW_500_spd_147.txt.gz
Wind_Speed
54 50 52 50 48 47 48 48 46 47 46 46 44 43 44 44 42 40 38 35 31 29 28 26 25 24 24 23 21 18 17 16 14 12 13 11 12 11 9 8 8 7 7 9 11
57 50 55 52 50 49 48 48 47 47 47 47 45 44 45 45 43 41 40 36 32 30 29 27 25 24 23 22 22 20 19 19 17 16 15 15 15 14 13 13 11 10 11 10 12
59 63 54 52 51 50 50 49 47 47 47 47 46 46 46 47 45 42 40 36 33 32 30 27 26 26 26 26 24 22 22 23 21 20 21 20 18 18 17 18 16 15 14 14 15
60 59 59 53 52 51 52 53 51 48 48 48 48 48 48 49 48 43 42 39 37 35 32 30 29 28 28 30 28 27 25 27 25 24 24 24 23 21 20 24 23 19 18 18 18
65 62 59 56 60 51 51 53 53 50 50 50 49 49 49 50 50 46 45 44 41 39 37 35 33 32 31 31 31 31 29 29 28 27 27 27 27 23 23 28 27 24 22 21 21
62 69 68 59 62 57 53 50 52 50 54 52 50 52 49 50 51 50 48 46 44 42 40 38 36 35 35 33 34 32 32 33 30 31 31 31 32 25 29 31 29 29 27 25 24
68 63 70 69 62 61 58 54 51 53 55 54 54 52 53 52 50 50 49 49 47 45 43 42 40 39 37 37 36 35 36 35 32 34 34 36 34 27 33 31 31 33 32 30 29
77 71 65 69 65 63 64 62 54 56 55 60 53 59 54 50 49 52 51 50 50 48 47 46 44 42 40 40 39 40 39 37 34 35 37 40 37 34 35 36 36 35 35 33 32
61 71 75 66 70 64 61 63 61 60 54 55 62 52 52 52 55 52 53 51 50 48 47 46 45 45 45 44 44 42 41 41 40 40 41 42 43 37 38 39 39 36 36 35 34
58 61 68 77 63 66 69 67 58 66 61 53 56 56 61 53 53 54 52 49 49 48 47 47 47 47 48 47 46 45 47 47 46 44 45 43 45 43 41 41 40 39 38 37 36
62 61 62 74 73 65 66 65 66 64 63 58 58 55 54 49 47 47 48 48 47 48 46 46 50 50 48 49 50 51 50 49 49 47 47 45 47 46 44 42 42 42 40 39 40
62 60 62 68 73 76 68 63 62 65 64 62 64 57 59 54 50 51 50 51 54 54 52 53 50 46 48 50 52 52 51 51 51 49 52 49 47 45 44 43 43 44 43 44 45
63 60 63 63 64 69 76 73 64 63 64 61 64 63 59 57 61 62 60 59 61 63 63 55 58 60 56 54 55 52 51 50 49 48 50 50 49 44 42 42 43 44 47 49 48
62 62 60 63 63 68 68 71 79 70 73 70 68 65 65 63 64 62 64 62 64 62 61 61 56 59 53 52 52 50 49 49 48 50 50 48 55 53 49 46 49 46 47 49 51
59 61 59 63 59 55 60 65 68 74 74 69 70 73 71 69 66 64 60 62 59 57 58 56 54 58 59 57 55 56 55 54 56 56 56 56 55 57 53 49 47 48 49 48 51
53 56 61 61 58 56 55 54 58 68 77 70 69 67 66 67 68 64 61 58 56 55 55 55 55 53 55 55 55 55 55 53 52 52 58 53 53 57 55 54 50 48 49 51 54
47 46 54 59 56 50 45 51 54 64 66 68 68 72 67 62 65 60 59 57 55 53 51 51 52 50 50 51 50 49 51 52 55 57 62 57 57 51 51 51 47 50 54 57 58
46 43 50 53 54 52 50 52 54 60 60 61 59 58 54 55 57 52 52 52 53 53 52 50 49 47 47 47 45 45 49 50 51 52 54 53 54 49 47 48 51 53 56 58 58
49 58 57 50 54 53 51 53 57 56 57 55 56 56 57 53 50 46 46 41 39 40 41 43 45 44 43 41 42 45 48 44 47 49 53 54 50 49 49 47 50 53 55 57 59
59 65 59 59 54 50 52 51 52 51 52 53 53 52 51 50 51 50 47 45 42 40 39 43 44 43 42 44 45 45 46 46 47 49 50 52 52 50 51 53 53 54 55 55 55
62 64 63 59 54 48 53 54 52 53 54 51 51 50 51 50 49 50 51 52 47 42 42 44 46 47 47 47 44 46 47 48 48 50 51 54 52 51 54 55 51 52 51 51 50
66 69 65 65 60 59 62 56 51 53 53 53 52 49 48 47 45 45 47 45 46 39 41 40 46 51 50 50 51 51 51 51 54 53 52 56 53 56 56 53 51 51 51 49 48
74 72 73 69 67 64 63 55 47 49 53 53 51 50 49 48 46 44 43 42 42 42 41 40 45 47 50 52 54 52 50 51 50 51 54 55 53 54 50 48 48 49 50 47 45
72 74 73 72 69 64 60 56 63 61 59 58 53 50 48 48 47 46 44 43 43 43 44 39 44 49 50 49 51 51 49 48 50 54 53 56 53 48 50 47 43 46 47 45 42
69 76 80 75 71 68 65 68 61 60 59 58 55 53 51 51 51 49 48 48 48 47 47 47 49 49 50 50 50 52 53 53 56 54 56 52 55 50 50 48 45 47 40 37 36
71 63 70 70 59 64 67 67 65 64 65 64 61 59 57 56 54 53 53 53 52 52 50 48 50 49 55 52 50 50 52 54 56 56 55 53 55 46 43 40 37 32 37 37 36
49 66 47 35 46 52 70 73 71 66 66 64 60 59 61 58 57 56 57 59 59 58 57 54 46 39 52 42 45 55 56 54 53 52 46 49 44 32 38 42 40 40 43 45 43

GFSSW_500_spd_153.txt.gz
Wind_Speed
63 60 59 58 54 53 56 54 54 57 59 56 55 54 54 52 52 52 52 48 46 43 40 37 34 32 32 30 30 29 27 26 26 26 24 23 21 19 18 16 14 12 11 10 8
67 59 60 58 57 54 57 52 51 53 56 56 55 55 55 54 53 53 54 52 49 46 43 40 38 36 34 33 32 31 28 28 27 28 26 25 23 20 20 18 17 16 14 12 11
64 66 61 57 56 58 59 51 54 50 50 53 51 53 55 53 54 54 55 53 50 49 46 43 41 39 36 35 33 31 31 30 30 29 28 26 24 23 23 22 23 19 17 14 14
64 63 69 65 58 57 57 57 57 52 46 48 48 48 52 52 55 53 53 52 50 49 47 46 44 41 37 36 33 33 32 30 30 31 31 28 26 26 26 26 25 23 21 18 19
74 63 66 72 71 61 56 54 51 58 52 59 52 47 48 51 52 51 52 51 50 50 49 47 46 43 40 36 35 34 31 31 30 31 32 30 29 29 28 30 28 25 22 22 23
71 76 65 66 70 66 70 58 53 61 54 51 53 46 47 48 49 50 51 50 49 49 49 48 46 44 41 38 37 34 33 33 32 32 32 31 30 31 29 33 30 27 26 25 26
61 67 78 66 73 69 63 65 56 53 57 51 48 58 46 47 48 48 48 48 48 48 50 50 47 46 42 41 38 36 35 34 33 32 33 32 31 30 33 31 32 30 29 28 29
59 55 77 81 72 70 69 66 60 58 55 62 50 51 50 48 46 46 45 45 46 47 49 51 50 48 46 43 42 40 38 36 34 33 34 35 30 35 33 35 34 33 32 32 33
56 52 65 81 70 65 68 68 62 60 55 64 56 52 54 50 50 47 46 45 45 46 49 51 51 50 48 47 45 43 41 39 36 38 37 38 34 36 36 38 37 36 35 37 38
62 53 52 64 75 74 66 71 65 67 62 59 63 55 53 53 51 49 47 46 43 44 48 51 51 49 50 48 45 45 44 42 43 41 40 39 38 37 38 40 38 39 40 41 41
58 55 54 57 67 77 70 67 72 71 67 63 60 56 48 50 50 49 48 47 45 44 47 47 50 47 47 47 50 48 48 47 46 46 44 43 42 41 40 42 41 41 43 43 42
52 55 52 51 59 69 74 73 69 63 60 59 59 60 51 47 52 48 45 46 46 43 45 46 47 48 49 48 50 50 51 50 48 48 48 46 47 45 45 43 44 44 44 42 42
53 54 56 57 60 62 69 68 63 65 68 68 62 62 60 56 50 49 48 45 46 45 47 46 46 47 45 48 50 50 51 50 50 49 46 50 53 57 52 45 44 45 44 44 43
55 61 56 52 56 56 54 65 76 69 65 69 71 64 62 62 57 54 51 50 51 49 45 48 50 48 48 48 47 49 49 48 49 45 45 49 56 49 44 49 51 50 48 47 46
53 50 49 57 54 51 47 52 64 70 66 65 62 66 64 60 62 61 57 50 53 51 50 52 48 46 48 45 46 46 46 47 50 52 53 55 59 58 51 49 49 49 48 51 54
50 49 47 50 55 51 46 53 54 64 74 66 62 62 61 62 62 61 62 62 55 53 53 55 53 51 48 47 47 49 49 51 54 57 62 60 59 61 64 59 54 53 52 51 52
47 46 45 50 54 51 49 49 49 54 58 58 63 60 56 58 63 61 59 60 59 59 58 56 54 54 53 53 54 55 58 57 59 61 64 63 62 61 64 60 54 49 48 48 51
49 48 48 47 48 48 47 48 55 53 52 54 54 57 54 53 59 58 61 61 61 59 55 57 59 60 56 54 53 54 55 57 58 58 60 63 64 62 59 52 50 46 47 48 44
50 50 49 50 45 42 45 48 48 50 52 50 51 50 57 57 53 55 57 57 59 62 63 65 63 61 60 58 57 57 59 50 53 56 60 60 58 56 57 49 48 49 44 41 41
47 49 53 49 47 52 51 49 49 49 48 49 48 47 46 46 53 53 51 52 54 55 58 59 56 57 56 58 59 60 56 53 53 56 57 57 54 51 48 47 44 43 41 40 42
51 54 52 48 45 50 51 49 49 52 51 50 50 48 43 41 40 42 48 48 51 52 53 56 55 56 56 56 52 53 56 55 55 57 59 61 55 52 51 47 46 42 43 42 43
53 55 57 56 51 48 47 48 56 60 56 52 48 45 41 39 37 38 39 40 41 42 44 42 49 57 54 52 51 44 50 51 53 54 52 51 49 46 49 50 48 46 42 43 44
45 49 55 56 57 55 53 48 50 51 48 45 45 43 39 38 39 39 37 39 45 43 38 38 44 45 50 52 48 49 44 44 45 47 52 52 49 46 46 47 49 49 47 47 48
51 56 55 55 54 55 60 55 53 49 45 43 45 42 42 41 43 40 40 44 45 44 47 46 50 50 47 44 49 49 48 49 51 56 54 54 50 47 50 53 52 45 46 48 47
61 48 53 61 59 54 59 54 48 46 45 41 39 39 39 37 37 39 41 40 43 43 40 46 49 51 51 50 53 53 52 52 54 54 58 51 53 46 45 52 47 49 52 49 50
62 53 60 62 55 53 56 58 54 48 50 43 41 36 35 37 35 35 35 37 37 36 38 41 44 44 46 46 48 53 54 54 54 54 54 53 51 44 45 47 49 49 52 50 49
65 55 51 56 58 58 63 62 57 53 49 46 42 42 41 42 36 33 34 35 38 38 32 40 47 47 49 47 50 54 52 49 50 51 53 53 43 43 48 52 51 47 50 51 48

GFSSW_500_spd_156.txt.gz
Wind_Speed
60 58 56 56 57 55 57 56 57 56 55 56 55 55 52 52 51 51 50 48 47 46 46 45 42 39 36 33 31 29 27 26 27 27 28 24 23 21 21 19 17 16 13 11 9
63 62 61 55 56 55 56 56 55 53 55 56 58 56 55 53 53 52 51 50 49 48 47 47 44 41 38 36 35 32 30 30 32 31 29 26 26 23 23 21 19 18 14 13 13
67 66 67 63 57 55 56 57 56 60 55 54 58 59 57 55 55 55 53 53 51 50 50 49 47 44 41 39 37 35 33 35 33 28 30 27 29 26 26 23 23 17 16 17 17
66 65 65 66 65 58 57 56 56 55 62 55 55 54 59 56 58 56 54 53 52 51 51 50 49 47 44 41 40 37 37 34 30 30 31 29 31 27 27 26 23 20 19 20 21
70 66 66 63 62 63 59 56 56 53 50 55 56 48 50 55 56 55 54 54 53 51 51 51 51 50 47 45 42 41 38 35 31 34 34 31 32 31 28 28 28 22 23 23 24
71 71 66 65 61 61 63 58 59 55 52 52 54 55 54 52 55 51 50 52 53 52 50 51 50 52 47 47 43 42 37 38 33 35 33 33 34 34 31 31 30 26 25 27 28
67 72 71 69 69 63 60 62 60 58 56 61 58 57 55 50 45 50 44 45 49 50 50 49 48 48 50 49 46 42 40 39 34 35 33 32 33 32 34 32 29 29 28 29 30
60 65 66 70 69 68 65 67 63 60 57 56 59 59 56 63 57 49 45 43 45 47 47 48 48 50 48 48 44 43 42 40 37 35 33 34 30 33 32 32 31 30 29 30 32
55 49 57 63 67 67 72 66 75 73 64 63 60 56 55 54 53 57 50 46 44 45 46 46 47 49 49 47 49 46 43 42 39 37 36 35 30 36 29 31 31 30 30 32 33
53 51 52 52 52 62 67 70 74 70 73 73 64 63 61 59 51 53 50 43 43 43 45 46 47 47 49 50 48 46 46 44 42 41 40 38 33 36 31 31 30 30 32 33 34
55 53 52 50 53 50 57 65 68 64 67 71 71 61 56 57 51 50 50 50 45 44 44 44 46 45 45 46 49 48 45 47 46 43 43 42 39 37 36 33 32 35 36 36 38
53 53 51 53 50 53 48 55 64 62 58 61 67 66 55 54 57 53 53 48 47 48 44 45 46 44 44 47 48 48 47 47 48 47 46 46 44 39 39 41 40 39 41 42 43
54 50 53 48 51 58 48 50 54 59 62 59 60 66 65 57 59 53 51 55 48 51 51 47 46 45 46 45 44 45 46 46 48 49 47 49 47 46 45 44 42 42 46 50 49
60 54 53 51 51 52 50 49 53 62 63 61 57 60 63 62 56 59 51 51 52 48 50 53 47 45 46 44 45 45 44 46 46 48 49 49 51 48 49 46 44 46 45 44 46
57 58 51 50 47 47 46 48 50 53 61 64 60 56 55 58 62 58 56 47 49 47 46 47 51 46 45 43 44 45 43 44 47 46 51 52 55 56 53 52 53 54 49 51 54
52 51 49 53 51 49 49 48 46 47 56 62 55 53 50 54 59 59 63 57 47 48 50 48 47 48 45 45 49 48 46 47 46 48 52 50 52 58 55 56 58 57 59 56 56
51 51 49 51 46 51 55 48 48 51 51 55 55 53 52 49 54 60 57 57 60 52 50 50 51 50 47 47 47 47 47 46 47 49 55 55 56 58 63 61 61 63 58 54 55
55 57 54 49 56 50 47 50 52 50 47 50 50 50 55 53 54 52 56 61 60 61 62 53 52 50 48 48 47 48 48 51 55 59 59 60 63 60 59 60 62 59 59 52 49
55 57 56 55 54 51 60 58 53 51 51 48 47 46 48 49 53 53 52 54 56 58 58 60 62 60 48 49 53 55 58 56 60 59 61 60 58 57 58 59 55 50 48 48 47
61 54 54 52 52 51 50 53 54 55 53 49 46 43 40 36 39 41 49 50 52 59 60 57 56 56 57 59 58 59 59 57 59 57 57 59 58 58 57 55 55 52 48 44 41
50 53 56 52 49 52 52 52 53 56 54 51 46 43 37 38 36 35 41 44 43 47 52 53 54 55 55 56 54 57 57 56 55 57 59 61 60 58 57 58 58 56 48 44 40
57 58 57 55 56 53 50 48 47 49 48 48 47 43 42 37 35 34 35 35 40 43 42 39 42 45 47 50 52 55 57 57 58 58 56 57 57 55 56 56 53 50 49 41 39
51 54 55 63 62 62 57 49 49 49 47 46 45 43 41 39 37 35 33 34 35 39 41 42 47 47 50 52 53 55 54 54 54 55 55 57 58 61 55 51 48 47 47 47 47
53 53 55 64 63 58 53 52 53 50 46 47 47 44 40 41 38 37 37 35 34 35 36 39 43 47 44 46 47 50 51 52 55 59 58 55 52 48 48 49 50 50 49 50 46
49 48 53 57 55 57 50 50 51 48 47 49 48 44 45 44 40 36 35 35 39 39 35 29 34 40 40 45 46 45 45 45 48 50 54 48 48 46 46 44 50 51 52 52 48
46 41 45 47 48 48 47 52 49 48 47 44 39 39 40 43 40 37 36 39 40 41 38 39 39 41 45 46 48 50 50 53 53 53 52 52 48 46 44 46 52 52 50 48 50
52 54 46 37 50 49 51 49 43 47 45 42 38 39 41 37 32 30 27 31 39 39 41 43 45 49 49 48 51 52 54 52 51 50 51 51 43 44 46 49 49 49 49 48 48

GFSSW_500_spd_159.txt.gz
Wind_Speed
63 63 60 61 60 56 55 57 57 56 56 54 53 53 56 50 49 48 48 45 43 43 42 41 41 39 39 37 36 33 30 28 29 28 22 20 23 24 23 21 20 16 15 13 13
65 64 62 59 57 57 59 54 56 56 57 56 55 54 53 55 51 49 49 48 46 46 45 43 43 43 44 42 40 37 33 31 32 29 21 21 24 25 24 23 20 18 16 17 18
68 64 64 61 58 56 55 52 55 52 55 56 56 55 54 52 54 51 49 50 48 47 47 46 46 45 45 44 42 41 35 35 33 30 25 22 25 26 28 24 21 19 19 21 20
70 69 64 61 59 58 55 54 54 57 53 54 55 57 54 52 53 54 54 50 50 49 48 48 47 47 46 46 45 41 40 37 34 33 27 27 29 27 29 27 23 22 22 22 23
72 69 67 65 62 58 58 58 57 55 56 55 54 56 58 53 53 53 53 55 51 50 50 49 49 48 47 47 47 43 43 40 34 36 32 30 30 29 28 29 26 24 24 25 24
69 72 67 64 63 63 62 61 61 55 54 55 55 55 57 60 51 51 55 56 51 51 51 50 49 49 47 49 49 45 45 42 36 37 35 33 32 30 27 29 29 26 26 27 27
56 65 70 69 66 63 65 65 65 62 55 55 55 54 56 59 59 50 48 51 59 50 49 51 50 49 48 50 47 46 47 44 40 38 37 34 34 28 32 33 29 28 29 29 30
50 51 65 72 65 64 62 64 59 59 59 55 55 54 54 54 53 56 49 47 46 48 46 48 50 50 49 48 44 47 49 47 42 42 38 37 31 32 32 32 29 30 29 30 30
49 48 51 60 70 67 63 61 60 57 57 60 56 56 56 55 52 54 54 50 58 49 48 44 45 47 46 45 45 48 47 46 45 44 41 38 33 35 33 31 29 29 28 29 31
53 48 47 50 61 61 68 62 61 62 59 57 56 60 60 56 53 53 54 51 47 46 41 41 44 43 44 44 44 44 46 48 48 46 44 39 36 37 34 31 29 27 29 28 29
52 52 52 50 51 60 63 58 57 58 57 62 58 59 58 54 56 54 53 53 59 56 54 47 43 42 41 42 46 46 46 48 50 49 45 43 40 40 37 34 30 31 31 31 33
56 51 50 49 48 50 53 50 53 52 56 57 59 59 59 53 55 54 52 48 46 46 43 46 49 42 42 43 46 47 46 47 50 49 47 45 41 40 39 36 35 34 35 37 39
54 57 49 45 51 49 45 44 50 49 46 48 55 53 61 65 64 58 55 56 54 48 49 46 45 45 43 42 44 44 44 44 48 49 47 47 44 43 41 39 39 39 40 40 39
52 65 52 45 48 47 43 45 49 46 47 41 48 52 49 49 59 65 58 58 57 47 48 50 52 48 43 43 43 43 43 44 47 46 47 47 50 44 41 42 42 42 44 43 45
56 55 58 56 53 51 45 48 44 43 49 47 45 47 43 47 49 58 62 60 57 55 49 50 48 49 54 44 45 44 43 44 45 46 47 47 49 45 44 43 43 46 47 47 50
62 58 55 55 56 53 47 42 42 42 51 53 47 44 40 38 45 48 59 62 57 60 49 50 55 50 51 51 45 45 44 44 45 46 48 44 45 51 47 49 51 51 52 50 49
67 60 56 61 63 52 49 49 43 52 50 51 52 46 41 38 41 42 46 55 58 54 58 46 51 56 47 51 51 46 42 43 44 44 46 46 47 52 52 48 49 52 52 52 55
70 61 60 61 59 49 48 49 53 51 46 48 50 46 41 37 41 42 46 48 54 60 56 54 47 52 50 45 45 44 45 46 48 49 49 52 52 50 47 51 54 53 54 58 55
64 60 58 64 57 49 53 53 54 53 50 50 49 48 44 39 39 41 43 41 48 52 52 54 57 47 48 49 48 45 46 45 47 48 51 53 52 50 51 57 56 56 56 55 54
51 56 62 55 58 57 58 58 57 57 54 52 48 45 41 35 31 34 39 42 44 48 53 57 56 57 60 52 49 49 46 47 52 52 54 55 57 59 60 60 60 57 55 55 54
57 66 63 62 56 67 64 60 59 60 58 53 49 45 43 34 29 30 32 35 39 46 45 49 54 56 56 60 59 52 51 52 56 59 61 60 59 58 58 58 57 58 56 54 50
67 64 62 63 71 64 64 57 58 59 56 51 48 45 42 33 28 29 32 32 31 33 41 45 50 50 52 51 52 52 54 59 63 60 57 55 54 56 56 57 57 58 55 52 50
60 55 64 63 69 68 63 61 55 60 57 54 49 44 41 38 34 32 32 33 31 30 36 37 41 44 48 50 51 53 51 51 51 51 53 54 54 56 54 57 54 54 54 52 47
63 60 67 66 65 68 65 61 56 54 51 50 48 45 43 40 39 36 35 32 32 31 32 33 37 40 39 40 42 45 45 46 48 50 50 51 51 52 51 49 51 50 48 47 46
60 60 66 66 60 57 55 56 54 51 49 48 45 44 42 39 39 37 34 32 34 34 31 34 38 37 38 41 44 45 45 45 47 48 50 49 47 45 44 45 46 48 48 48 50
49 59 56 55 51 56 61 56 50 47 46 43 42 40 41 42 38 34 29 29 32 33 34 32 32 35 39 42 44 44 45 46 47 46 46 45 44 39 40 47 49 49 51 53 53
46 51 55 59 59 57 56 56 54 50 42 40 40 39 38 35 35 37 36 33 33 33 35 39 38 37 37 38 42 43 44 43 43 44 46 48 45 47 48 48 49 52 52 55 55